GW2849 Weather Reports


Display with metric or nautical units.
time (UTC)temp
F
wind
direction
speed
MPH
gust
MPH
rain 1hr
in
rain 24hr
in
rain mn
in
humidity
%
barometer
mb
20260903141358 88 230 0.0 4.0 0.00 0.00 0.00 62 1017.4
20260903141258 88 127 0.0 4.0 0.00 0.00 0.00 62 1017.4
20260903141100 88 355 0.0 3.0 0.00 0.00 0.00 62 1017.4
20260903140959 87 119 2.0 2.0 0.00 0.00 0.00 64 1017.4
20260903140857 87 296 0.0 2.0 0.00 0.00 0.00 63 1017.5
20260903140758 87 301 0.0 2.0 0.00 0.00 0.00 63 1017.4
20260903140658 87 288 0.0 2.0 0.00 0.00 0.00 63 1017.4
20260903140600 87 287 0.0 3.0 0.00 0.00 0.00 64 1017.4
20260903140458 87 170 0.0 3.0 0.00 0.00 0.00 65 1017.5
20260903140159 87 206 0.0 3.0 0.00 0.00 0.00 66 1017.5
20260903140058 86 200 0.0 3.0 0.00 0.00 0.00 66 1017.5
20260903135959 86 148 0.0 3.0 0.00 0.00 0.00 65 1017.5
20260903135700 86 183 0.0 5.0 0.00 0.00 0.00 66 1017.5
20260903135400 86 327 0.0 5.0 0.00 0.00 0.00 67 1017.5
20260903135300 85 310 1.0 5.0 0.00 0.00 0.00 66 1017.5
20260903135202 85 334 2.0 5.0 0.00 0.00 0.00 66 1017.5
20260903135059 85 189 3.0 6.0 0.00 0.00 0.00 66 1017.5
20260903134959 85 294 0.0 6.0 0.00 0.00 0.00 67 1017.5
20260903134759 85 163 2.0 6.0 0.00 0.00 0.00 66 1017.5
20260903134659 85 248 0.0 2.0 0.00 0.00 0.00 68 1017.5
20260903134558 85 38 0.0 2.0 0.00 0.00 0.00 68 1017.5
20260903134459 85 315 0.0 2.0 0.00 0.00 0.00 68 1017.5
20260903134401 84 277 0.0 2.0 0.00 0.00 0.00 68 1017.6
20260903134159 84 261 0.0 2.0 0.00 0.00 0.00 69 1017.5
20260903134000 84 74 0.0 2.0 0.00 0.00 0.00 69 1017.6
20260903133859 84 187 0.0 3.0 0.00 0.00 0.00 69 1017.6
20260903133802 84 164 0.0 3.0 0.00 0.00 0.00 69 1017.6
20260903133659 83 153 0.0 3.0 0.00 0.00 0.00 70 1017.6
20260903133559 83 294 0.0 3.0 0.00 0.00 0.00 70 1017.6
20260903133500 83 175 0.0 3.0 0.00 0.00 0.00 71 1017.6
20260903133359 83 175 2.0 3.0 0.00 0.00 0.00 71 1017.7
20260903133259 83 160 1.0 3.0 0.00 0.00 0.00 70 1017.6
20260903133159 83 174 0.0 3.0 0.00 0.00 0.00 71 1017.7
20260903133101 83 187 2.0 4.0 0.00 0.00 0.00 71 1017.8
20260903132959 82 183 1.0 4.0 0.00 0.00 0.00 71 1017.7
20260903132759 82 197 0.0 4.0 0.00 0.00 0.00 72 1017.8
20260903132658 82 269 1.0 4.0 0.00 0.00 0.00 71 1017.7
20260903132459 82 155 0.0 4.0 0.00 0.00 0.00 72 1017.7
20260903132405 82 227 0.0 4.0 0.00 0.00 0.00 71 1017.7
20260903132259 82 183 2.0 4.0 0.00 0.00 0.00 72 1017.8
20260903132200 81 192 4.0 4.0 0.00 0.00 0.00 72 1017.8
20260903132100 81 188 0.0 3.0 0.00 0.00 0.00 72 1017.8
20260903131959 81 271 1.0 4.0 0.00 0.00 0.00 72 1017.8
20260903131901 81 281 1.0 4.0 0.00 0.00 0.00 72 1017.8
20260903131700 81 138 1.0 4.0 0.00 0.00 0.00 72 1017.8
20260903131559 81 167 0.0 4.0 0.00 0.00 0.00 72 1017.8
20260903131500 81 169 0.0 4.0 0.00 0.00 0.00 73 1017.8
20260903131259 81 172 1.0 4.0 0.00 0.00 0.00 73 1017.8
20260903131059 81 178 1.0 4.0 0.00 0.00 0.00 73 1017.7
20260903130958 81 163 1.0 4.0 0.00 0.00 0.00 73 1017.7
20260903130859 81 174 1.0 3.0 0.00 0.00 0.00 74 1017.8
20260903130758 81 168 2.0 3.0 0.00 0.00 0.00 73 1017.8
20260903130659 81 183 2.0 3.0 0.00 0.00 0.00 74 1017.7
20260903130603 80 193 2.0 3.0 0.00 0.00 0.00 74 1017.7
20260903130458 80 176 0.0 3.0 0.00 0.00 0.00 74 1017.7
20260903130359 80 171 0.0 3.0 0.00 0.00 0.00 74 1017.8
20260903130301 80 161 1.0 3.0 0.00 0.00 0.00 74 1017.8
20260903130200 80 178 1.0 3.0 0.00 0.00 0.00 74 1017.7
20260903130100 80 289 3.0 3.0 0.00 0.00 0.00 74 1017.7
20260903130003 80 186 0.0 3.0 0.00 0.00 0.00 74 1017.7
20260903125859 80 191 0.0 3.0 0.00 0.00 0.00 74 1017.7
20260903125758 80 184 0.0 3.0 0.00 0.00 0.00 75 1017.7
20260903125601 80 171 0.0 3.0 0.00 0.00 0.00 75 1017.7
20260903125500 80 175 0.0 4.0 0.00 0.00 0.00 75 1017.7
20260903125259 80 205 2.0 4.0 0.00 0.00 0.00 76 1017.8
20260903125158 80 160 0.0 4.0 0.00 0.00 0.00 76 1017.7
20260903125101 80 155 1.0 4.0 0.00 0.00 0.00 75 1017.8
20260903124958 79 183 1.0 4.0 0.00 0.00 0.00 75 1017.7
20260903124859 79 174 0.0 4.0 0.00 0.00 0.00 75 1017.8
20260903124758 79 175 1.0 4.0 0.00 0.00 0.00 75 1017.7
20260903124658 79 203 3.0 4.0 0.00 0.00 0.00 75 1017.9
20260903124559 79 166 3.0 4.0 0.00 0.00 0.00 76 1017.7
20260903124459 79 171 0.0 0.0 0.00 0.00 0.00 76 1017.8
20260903124400 79 190 0.0 0.0 0.00 0.00 0.00 76 1017.8
20260903124300 79 189 0.0 0.0 0.00 0.00 0.00 76 1017.8
20260903124200 79 170 0.0 0.0 0.00 0.00 0.00 76 1017.8
20260903124100 79 169 0.0 0.0 0.00 0.00 0.00 77 1017.8
20260903124000 79 188 0.0 0.0 0.00 0.00 0.00 77 1017.8
20260903123858 79 244 0.0 0.0 0.00 0.00 0.00 77 1017.8
20260903123800 79 190 0.0 0.0 0.00 0.00 0.00 77 1017.8
20260903123600 79 190 0.0 0.0 0.00 0.00 0.00 77 1017.8
20260903123359 79 159 0.0 0.0 0.00 0.00 0.00 77 1017.8
20260903123258 78 236 0.0 0.0 0.00 0.00 0.00 77 1017.9
20260903123159 78 181 0.0 0.0 0.00 0.00 0.00 77 1017.9
20260903122858 78 190 0.0 0.0 0.00 0.00 0.00 78 1017.9
20260903122801 78 178 0.0 0.0 0.00 0.00 0.00 78 1018.0
20260903122559 78 178 0.0 0.0 0.00 0.00 0.00 78 1018.0
20260903122459 78 207 0.0 0.0 0.00 0.00 0.00 78 1018.0
20260903122259 78 196 0.0 0.0 0.00 0.00 0.00 78 1018.0
20260903122203 78 297 0.0 0.0 0.00 0.00 0.00 78 1018.0
20260903122059 78 298 0.0 0.0 0.00 0.00 0.00 78 1018.1
20260903122000 78 239 0.0 0.0 0.00 0.00 0.00 78 1018.0
20260903121858 78 239 0.0 0.0 0.00 0.00 0.00 78 1018.1
20260903121800 78 239 0.0 0.0 0.00 0.00 0.00 78 1018.1
20260903121659 78 238 0.0 0.0 0.00 0.00 0.00 79 1018.0
20260903121559 78 260 0.0 0.0 0.00 0.00 0.00 78 1018.0
20260903121459 78 260 0.0 0.0 0.00 0.00 0.00 79 1017.9
20260903121401 78 286 0.0 0.0 0.00 0.00 0.00 79 1017.9
20260903121259 77 285 0.0 0.0 0.00 0.00 0.00 79 1017.9
20260903121159 77 252 0.0 0.0 0.00 0.00 0.00 79 1017.9
20260903121058 77 252 0.0 0.0 0.00 0.00 0.00 79 1017.9
20260903120959 77 194 0.0 0.0 0.00 0.00 0.00 79 1017.9
20260903120859 77 194 0.0 0.0 0.00 0.00 0.00 79 1017.9
20260903120759 77 194 0.0 0.0 0.00 0.00 0.00 79 1017.8
20260903120659 77 194 0.0 0.0 0.00 0.00 0.00 79 1017.8
20260903120559 77 194 0.0 0.0 0.00 0.00 0.00 79 1017.7
20260903120459 77 172 0.0 0.0 0.00 0.00 0.00 79 1017.7
20260903120358 77 154 0.0 0.0 0.00 0.00 0.00 79 1017.7
20260903120259 77 154 0.0 0.0 0.00 0.00 0.00 79 1017.7
20260903120158 77 154 0.0 0.0 0.00 0.00 0.00 79 1017.7
20260903120059 77 154 0.0 0.0 0.00 0.00 0.00 79 1017.7
20260903115957 77 154 0.0 0.0 0.00 0.00 0.00 79 1017.6
20260903115858 77 152 0.0 0.0 0.00 0.00 0.00 79 1017.7
20260903115758 77 259 0.0 0.0 0.00 0.00 0.00 79 1017.7
20260903115658 77 259 0.0 0.0 0.00 0.00 0.00 79 1017.7
20260903115557 77 278 0.0 0.0 0.00 0.00 0.00 79 1017.7
20260903115459 77 277 0.0 0.0 0.00 0.00 0.00 79 1017.7
20260903115358 77 278 0.0 0.0 0.00 0.00 0.00 79 1017.7
20260903115259 77 278 0.0 0.0 0.00 0.00 0.00 79 1017.7
20260903114858 77 275 0.0 0.0 0.00 0.00 0.00 79 1017.6
20260903114759 77 275 0.0 0.0 0.00 0.00 0.00 79 1017.6
20260903114658 77 275 0.0 0.0 0.00 0.00 0.00 79 1017.6
20260903114558 77 275 0.0 0.0 0.00 0.00 0.00 79 1017.7
20260903114457 77 275 0.0 0.0 0.00 0.00 0.00 79 1017.7
20260903114359 77 275 0.0 0.0 0.00 0.00 0.00 79 1017.6
20260903114300 77 275 0.0 0.0 0.00 0.00 0.00 79 1017.6
20260903114058 77 265 0.0 0.0 0.00 0.00 0.00 79 1017.6
20260903113959 77 276 0.0 0.0 0.00 0.00 0.00 79 1017.6
20260903113859 77 301 0.0 0.0 0.00 0.00 0.00 79 1017.6
20260903113758 77 301 0.0 0.0 0.00 0.00 0.00 79 1017.6
20260903113658 77 306 0.0 0.0 0.00 0.00 0.00 79 1017.6
20260903113559 77 260 0.0 0.0 0.00 0.00 0.00 79 1017.6
20260903113459 77 260 0.0 0.0 0.00 0.00 0.00 79 1017.6
20260903113358 77 259 0.0 0.0 0.00 0.00 0.00 79 1017.6
20260903113300 77 259 0.0 0.0 0.00 0.00 0.00 79 1017.6
20260903113058 77 259 0.0 0.0 0.00 0.00 0.00 79 1017.6
20260903112958 77 276 0.0 0.0 0.00 0.00 0.00 79 1017.6
20260903112858 77 276 0.0 0.0 0.00 0.00 0.00 79 1017.6
20260903112758 77 277 0.0 0.0 0.00 0.00 0.00 79 1017.6
20260903112659 77 186 0.0 0.0 0.00 0.00 0.00 79 1017.5
20260903112601 77 186 0.0 0.0 0.00 0.00 0.00 79 1017.5
20260903112458 77 186 0.0 0.0 0.00 0.00 0.00 79 1017.5
20260903112358 77 180 0.0 0.0 0.00 0.00 0.00 79 1017.5
20260903112257 77 180 0.0 0.0 0.00 0.00 0.00 79 1017.5
20260903112158 77 212 0.0 0.0 0.00 0.00 0.00 79 1017.5
20260903112058 77 214 0.0 0.0 0.00 0.00 0.00 79 1017.5
20260903111958 77 253 0.0 0.0 0.00 0.00 0.00 79 1017.5
20260903111859 77 188 0.0 0.0 0.00 0.00 0.00 79 1017.5
20260903111758 77 223 0.0 0.0 0.00 0.00 0.00 79 1017.4
20260903111658 77 223 0.0 0.0 0.00 0.00 0.00 79 1017.5
20260903111558 77 223 0.0 0.0 0.00 0.00 0.00 79 1017.5
20260903111458 77 223 0.0 0.0 0.00 0.00 0.00 79 1017.4
20260903111259 77 223 0.0 0.0 0.00 0.00 0.00 79 1017.4
20260903111157 77 223 0.0 0.0 0.00 0.00 0.00 79 1017.4
20260903111058 77 223 0.0 0.0 0.00 0.00 0.00 79 1017.4
20260903110958 77 223 0.0 0.0 0.00 0.00 0.00 79 1017.4
20260903110857 77 224 0.0 0.0 0.00 0.00 0.00 79 1017.3
20260903110759 77 216 0.0 0.0 0.00 0.00 0.00 79 1017.4
20260903110657 77 216 0.0 0.0 0.00 0.00 0.00 79 1017.4
20260903110600 77 216 0.0 0.0 0.00 0.00 0.00 79 1017.4
20260903110503 77 223 0.0 0.0 0.00 0.00 0.00 79 1017.4
20260903110401 77 266 0.0 0.0 0.00 0.00 0.00 79 1017.3
20260903110300 77 266 0.0 0.0 0.00 0.00 0.00 79 1017.3
20260903110058 77 277 0.0 0.0 0.00 0.00 0.00 79 1017.3
20260903110002 77 277 0.0 0.0 0.00 0.00 0.00 78 1017.3
20260903105900 77 277 0.0 0.0 0.00 0.00 0.00 78 1017.3
20260903105759 77 277 0.0 0.0 0.00 0.00 0.00 78 1017.2
20260903105659 77 245 0.0 0.0 0.00 0.00 0.00 78 1017.2
20260903105558 77 245 0.0 0.0 0.00 0.00 0.00 78 1017.2
20260903105501 77 245 0.0 0.0 0.00 0.00 0.00 78 1017.2
20260903105300 77 193 0.0 0.0 0.00 0.00 0.00 78 1017.1
20260903105159 77 193 0.0 0.0 0.00 0.00 0.00 78 1017.1
20260903105100 77 197 0.0 0.0 0.00 0.00 0.00 78 1017.1
20260903104958 77 304 0.0 0.0 0.00 0.00 0.00 78 1017.2
20260903104759 77 200 0.0 0.0 0.00 0.00 0.00 78 1017.1
20260903104658 77 200 0.0 0.0 0.00 0.00 0.00 78 1017.1
20260903104600 78 200 0.0 0.0 0.00 0.00 0.00 78 1017.1
20260903104459 78 200 0.0 0.0 0.00 0.00 0.00 78 1017.1
20260903104301 78 240 0.0 1.0 0.00 0.00 0.00 78 1017.1
20260903104159 78 240 0.0 1.0 0.00 0.00 0.00 78 1017.1
20260903104059 78 240 0.0 1.0 0.00 0.00 0.00 78 1017.1
20260903104000 77 177 0.0 1.0 0.00 0.00 0.00 79 1017.0
20260903103858 77 197 0.0 1.0 0.00 0.00 0.00 78 1017.0
20260903103759 77 188 0.0 1.0 0.00 0.00 0.00 78 1017.1
20260903103659 77 277 0.0 1.0 0.00 0.00 0.00 78 1017.0
20260903103601 77 350 0.0 1.0 0.00 0.00 0.00 78 1017.0
20260903103458 77 5 0.0 1.0 0.00 0.00 0.00 79 1017.1
20260903103359 77 222 0.0 0.0 0.00 0.00 0.00 79 1017.0
20260903103158 77 234 0.0 0.0 0.00 0.00 0.00 79 1017.0
20260903103058 77 180 0.0 0.0 0.00 0.00 0.00 79 1017.0
20260903102958 77 198 0.0 2.0 0.00 0.00 0.00 79 1017.0
20260903102759 77 205 0.0 2.0 0.00 0.00 0.00 79 1017.0
20260903102657 77 217 0.0 2.0 0.00 0.00 0.00 79 1017.0
20260903102357 77 279 0.0 2.0 0.00 0.00 0.00 79 1017.0
20260903102258 77 265 0.0 2.0 0.00 0.00 0.00 79 1017.0
20260903102158 77 250 0.0 2.0 0.00 0.00 0.00 79 1017.0
20260903102057 77 167 0.0 0.0 0.00 0.00 0.00 79 1017.0
20260903101858 77 232 0.0 0.0 0.00 0.00 0.00 79 1017.0
20260903101757 77 232 0.0 0.0 0.00 0.00 0.00 79 1017.0
20260903101659 77 232 0.0 0.0 0.00 0.00 0.00 79 1017.0
20260903101557 77 232 0.0 2.0 0.00 0.00 0.00 79 1017.1
20260903101458 77 223 0.0 2.0 0.00 0.00 0.00 79 1017.0
20260903101357 77 223 0.0 2.0 0.00 0.00 0.00 79 1017.0
20260903101157 77 217 0.0 2.0 0.00 0.00 0.00 79 1017.0
20260903101058 77 291 0.0 2.0 0.00 0.00 0.00 79 1017.0
20260903100958 77 299 0.0 2.0 0.00 0.00 0.00 79 1017.0
20260903100900 77 298 0.0 2.0 0.00 0.00 0.00 79 1017.0
20260903100759 77 299 0.0 2.0 0.00 0.00 0.00 79 1017.1
20260903100700 77 201 0.0 0.0 0.00 0.00 0.00 79 1017.1
20260903100558 77 201 0.0 0.0 0.00 0.00 0.00 79 1017.1
20260903100458 77 201 0.0 0.0 0.00 0.00 0.00 79 1017.1
20260903100159 77 174 0.0 0.0 0.00 0.00 0.00 79 1017.0
20260903100057 77 250 0.0 0.0 0.00 0.00 0.00 79 1017.0
20260903095958 77 250 0.0 0.0 0.00 0.00 0.00 79 1017.0
20260903095859 77 250 0.0 0.0 0.00 0.00 0.00 79 1017.0
20260903095759 77 250 0.0 0.0 0.00 0.00 0.00 80 1017.0
20260903095700 77 250 0.0 1.0 0.00 0.00 0.00 79 1017.0
20260903095559 77 198 0.0 1.0 0.00 0.00 0.00 80 1016.9
20260903095458 77 209 0.0 1.0 0.00 0.00 0.00 80 1017.0
20260903095401 77 279 0.0 1.0 0.00 0.00 0.00 80 1016.9
20260903095158 77 197 0.0 1.0 0.00 0.00 0.00 80 1016.9
20260903095058 77 197 0.0 1.0 0.00 0.00 0.00 80 1017.0
20260903094958 77 197 0.0 1.0 0.00 0.00 0.00 80 1017.0
20260903094858 77 197 0.0 1.0 0.00 0.00 0.00 80 1016.9
20260903094800 77 244 0.0 1.0 0.00 0.00 0.00 80 1016.9
20260903094702 77 199 0.0 0.0 0.00 0.00 0.00 80 1016.9
20260903094559 77 224 0.0 0.0 0.00 0.00 0.00 80 1016.9
20260903094500 77 233 0.0 0.0 0.00 0.00 0.00 80 1016.9
20260903094359 77 229 0.0 0.0 0.00 0.00 0.00 80 1016.9
20260903094300 77 261 0.0 0.0 0.00 0.00 0.00 80 1017.0
20260903094159 77 261 0.0 0.0 0.00 0.00 0.00 80 1017.0
20260903094059 77 261 0.0 0.0 0.00 0.00 0.00 80 1016.9
20260903093959 77 261 0.0 0.0 0.00 0.00 0.00 80 1017.0
20260903093859 77 261 0.0 0.0 0.00 0.00 0.00 80 1017.0
20260903093758 77 261 0.0 0.0 0.00 0.00 0.00 80 1017.0
20260903093658 77 261 0.0 0.0 0.00 0.00 0.00 79 1017.0
20260903093559 77 260 0.0 0.0 0.00 0.00 0.00 80 1016.9
20260903093458 77 260 0.0 0.0 0.00 0.00 0.00 79 1016.9
20260903093201 77 260 0.0 0.0 0.00 0.00 0.00 79 1017.0
20260903093059 77 260 0.0 0.0 0.00 0.00 0.00 79 1017.0
20260903092959 77 260 0.0 0.0 0.00 0.00 0.00 79 1017.0
20260903092859 77 260 0.0 0.0 0.00 0.00 0.00 79 1017.0
20260903092758 77 260 0.0 0.0 0.00 0.00 0.00 79 1017.0
20260903092658 77 260 0.0 0.0 0.00 0.00 0.00 79 1017.0
20260903092559 77 229 0.0 0.0 0.00 0.00 0.00 79 1017.0
20260903092459 77 229 0.0 0.0 0.00 0.00 0.00 79 1017.0
20260903092359 77 229 0.0 0.0 0.00 0.00 0.00 79 1017.0
20260903092259 77 229 0.0 0.0 0.00 0.00 0.00 79 1017.0
20260903092159 77 229 0.0 0.0 0.00 0.00 0.00 79 1017.0
20260903092059 77 229 0.0 0.0 0.00 0.00 0.00 79 1017.0
20260903091958 77 229 0.0 0.0 0.00 0.00 0.00 79 1017.0
20260903091759 77 229 0.0 0.0 0.00 0.00 0.00 79 1017.0
20260903091559 77 229 0.0 0.0 0.00 0.00 0.00 79 1016.9
20260903091359 77 229 0.0 0.0 0.00 0.00 0.00 78 1016.9
20260903091259 78 229 0.0 0.0 0.00 0.00 0.00 78 1016.9
20260903091158 78 229 0.0 0.0 0.00 0.00 0.00 78 1017.0
20260903091058 78 229 0.0 0.0 0.00 0.00 0.00 78 1017.0
20260903091000 78 229 0.0 0.0 0.00 0.00 0.00 78 1017.0
20260903090659 78 229 0.0 0.0 0.00 0.00 0.00 79 1017.0
20260903090559 78 229 0.0 0.0 0.00 0.00 0.00 78 1017.0
20260903090500 78 229 0.0 0.0 0.00 0.00 0.00 78 1016.9
20260903090259 78 229 0.0 0.0 0.00 0.00 0.00 78 1016.9
20260903090158 78 229 0.0 0.0 0.00 0.00 0.00 78 1016.9
20260903090000 78 229 0.0 0.0 0.00 0.00 0.00 78 1016.9
20260903085859 78 229 0.0 0.0 0.00 0.00 0.00 78 1016.9
20260903085800 78 229 0.0 0.0 0.00 0.00 0.00 78 1016.9
20260903085659 78 229 0.0 0.0 0.00 0.00 0.00 78 1016.9
20260903085559 78 229 0.0 0.0 0.00 0.00 0.00 78 1016.9
20260903085500 78 229 0.0 0.0 0.00 0.00 0.00 78 1016.9
20260903085400 78 229 0.0 0.0 0.00 0.00 0.00 78 1016.9
20260903085159 78 229 0.0 0.0 0.00 0.00 0.00 78 1016.9
20260903085059 78 229 0.0 0.0 0.00 0.00 0.00 78 1016.9
20260903085000 78 229 0.0 0.0 0.00 0.00 0.00 78 1016.9
20260903084859 78 229 0.0 0.0 0.00 0.00 0.00 78 1016.9
20260903084658 78 229 0.0 0.0 0.00 0.00 0.00 78 1016.8
20260903084459 78 229 0.0 0.0 0.00 0.00 0.00 78 1016.8
20260903084359 78 229 0.0 0.0 0.00 0.00 0.00 78 1016.8
20260903084059 78 229 0.0 0.0 0.00 0.00 0.00 78 1016.9
20260903083959 78 229 0.0 0.0 0.00 0.00 0.00 78 1016.9
20260903083859 78 229 0.0 0.0 0.00 0.00 0.00 78 1016.9
20260903083659 78 247 0.0 0.0 0.00 0.00 0.00 78 1016.8
20260903083600 78 247 0.0 0.0 0.00 0.00 0.00 78 1016.8
20260903083458 78 247 0.0 0.0 0.00 0.00 0.00 78 1016.8
20260903083359 78 255 0.0 0.0 0.00 0.00 0.00 78 1016.9
20260903083159 78 255 0.0 0.0 0.00 0.00 0.00 78 1016.8
20260903083059 78 186 0.0 0.0 0.00 0.00 0.00 78 1016.8
20260903083000 78 186 0.0 0.0 0.00 0.00 0.00 78 1016.9
20260903082804 78 186 0.0 0.0 0.00 0.00 0.00 78 1016.8
20260903082659 78 186 0.0 0.0 0.00 0.00 0.00 78 1016.8
20260903082559 78 186 0.0 0.0 0.00 0.00 0.00 78 1016.8
20260903082458 78 186 0.0 0.0 0.00 0.00 0.00 78 1016.8
20260903082359 78 186 0.0 0.0 0.00 0.00 0.00 79 1016.8
20260903082259 78 214 0.0 0.0 0.00 0.00 0.00 79 1016.8
20260903082158 78 161 0.0 0.0 0.00 0.00 0.00 79 1016.8
20260903082059 78 161 0.0 0.0 0.00 0.00 0.00 79 1016.8
20260903082000 78 161 0.0 0.0 0.00 0.00 0.00 79 1016.8
20260903081759 78 161 0.0 0.0 0.00 0.00 0.00 79 1016.8
20260903081559 78 207 0.0 0.0 0.00 0.00 0.00 79 1016.8
20260903081459 78 207 0.0 0.0 0.00 0.00 0.00 79 1016.8
20260903081359 78 207 0.0 0.0 0.00 0.00 0.00 79 1016.8
20260903081258 78 218 0.0 0.0 0.00 0.00 0.00 80 1016.8
20260903081159 78 205 0.0 0.0 0.00 0.00 0.00 80 1016.8
20260903081059 78 205 0.0 0.0 0.00 0.00 0.00 80 1016.8
20260903080959 78 205 0.0 0.0 0.00 0.00 0.00 80 1016.9
20260903080900 78 205 0.0 0.0 0.00 0.00 0.00 80 1016.8
20260903080800 78 205 0.0 0.0 0.00 0.00 0.00 80 1016.8
20260903080659 78 205 0.0 0.0 0.00 0.00 0.00 80 1016.8
20260903080559 78 217 0.0 0.0 0.00 0.00 0.00 80 1016.8
20260903080459 78 217 0.0 0.0 0.00 0.00 0.00 80 1016.8
20260903080359 78 217 0.0 0.0 0.00 0.00 0.00 80 1016.8
20260903080302 78 217 0.0 0.0 0.00 0.00 0.00 80 1016.8
20260903080200 78 217 0.0 0.0 0.00 0.00 0.00 80 1016.8
20260903080059 78 217 0.0 0.0 0.00 0.00 0.00 80 1016.8
20260903080000 78 217 0.0 0.0 0.00 0.00 0.00 79 1016.8
20260903075858 78 217 0.0 0.0 0.00 0.00 0.00 79 1016.8
20260903075757 78 217 0.0 0.0 0.00 0.00 0.00 79 1016.7
20260903075658 78 217 0.0 0.0 0.00 0.00 0.00 79 1016.8
20260903075458 78 217 0.0 0.0 0.00 0.00 0.00 79 1016.7
20260903075359 78 217 0.0 0.0 0.00 0.00 0.00 79 1016.6
20260903075259 78 217 0.0 0.0 0.00 0.00 0.00 79 1016.7
20260903075158 78 217 0.0 0.0 0.00 0.00 0.00 79 1016.6
20260903075058 78 217 0.0 0.0 0.00 0.00 0.00 79 1016.7
20260903074658 78 217 0.0 0.0 0.00 0.00 0.00 79 1016.7
20260903074557 78 217 0.0 0.0 0.00 0.00 0.00 79 1016.7
20260903074459 78 217 0.0 0.0 0.00 0.00 0.00 79 1016.7
20260903074359 78 217 0.0 0.0 0.00 0.00 0.00 80 1016.7
20260903074258 78 217 0.0 0.0 0.00 0.00 0.00 79 1016.6
20260903074158 78 217 0.0 0.0 0.00 0.00 0.00 79 1016.6
20260903074057 78 217 0.0 0.0 0.00 0.00 0.00 79 1016.6
20260903073858 78 217 0.0 0.0 0.00 0.00 0.00 79 1016.6
20260903073758 78 217 0.0 0.0 0.00 0.00 0.00 79 1016.5
20260903073658 78 217 0.0 0.0 0.00 0.00 0.00 79 1016.6
20260903073358 78 217 0.0 0.0 0.00 0.00 0.00 79 1016.6
20260903073257 78 217 0.0 0.0 0.00 0.00 0.00 79 1016.6
20260903073058 79 217 0.0 0.0 0.00 0.00 0.00 79 1016.6
20260903072958 79 217 0.0 0.0 0.00 0.00 0.00 79 1016.6
20260903072858 79 217 0.0 0.0 0.00 0.00 0.00 79 1016.6
20260903072759 79 217 0.0 0.0 0.00 0.00 0.00 79 1016.6
20260903072658 79 217 0.0 0.0 0.00 0.00 0.00 78 1016.6
20260903072558 79 217 0.0 0.0 0.00 0.00 0.00 78 1016.6
20260903072458 79 217 0.0 0.0 0.00 0.00 0.00 78 1016.5
20260903072358 79 217 0.0 0.0 0.00 0.00 0.00 78 1016.5
20260903072300 79 217 0.0 0.0 0.00 0.00 0.00 78 1016.5
20260903072057 79 217 0.0 0.0 0.00 0.00 0.00 78 1016.5
20260903071857 79 217 0.0 0.0 0.00 0.00 0.00 78 1016.5
20260903071758 79 217 0.0 0.0 0.00 0.00 0.00 78 1016.6
20260903071659 79 217 0.0 0.0 0.00 0.00 0.00 79 1016.5
20260903071557 79 217 0.0 0.0 0.00 0.00 0.00 79 1016.5
20260903071459 79 217 0.0 0.0 0.00 0.00 0.00 79 1016.6
20260903071359 79 217 0.0 0.0 0.00 0.00 0.00 78 1016.6
20260903071257 79 217 0.0 0.0 0.00 0.00 0.00 78 1016.6
20260903071157 79 217 0.0 0.0 0.00 0.00 0.00 78 1016.6
20260903071058 79 217 0.0 0.0 0.00 0.00 0.00 78 1016.6
20260903070959 79 217 0.0 0.0 0.00 0.00 0.00 78 1016.6
20260903070857 79 217 0.0 0.0 0.00 0.00 0.00 78 1016.5
20260903070758 79 217 0.0 0.0 0.00 0.00 0.00 78 1016.6
20260903070658 79 217 0.0 0.0 0.00 0.00 0.00 78 1016.6
20260903070557 79 217 0.0 0.0 0.00 0.00 0.00 78 1016.5
20260903070458 79 217 0.0 0.0 0.00 0.00 0.00 78 1016.6
20260903070258 79 217 0.0 0.0 0.00 0.00 0.00 78 1016.5
20260903070158 79 217 0.0 0.0 0.00 0.00 0.00 78 1016.6
20260903070057 79 281 0.0 0.0 0.00 0.00 0.00 78 1016.6
20260903065959 79 281 0.0 0.0 0.00 0.00 0.00 78 1016.6
20260903065858 79 281 0.0 0.0 0.00 0.00 0.00 78 1016.6
20260903065759 79 281 0.0 0.0 0.00 0.00 0.00 78 1016.6
20260903065659 79 281 0.0 0.0 0.00 0.00 0.00 78 1016.6
20260903065558 79 281 0.0 0.0 0.00 0.00 0.00 78 1016.6
20260903065457 79 281 0.0 0.0 0.00 0.00 0.00 78 1016.6
20260903065358 79 266 0.0 0.0 0.00 0.00 0.00 78 1016.6
20260903065158 79 198 0.0 0.0 0.00 0.00 0.00 79 1016.7
20260903065058 79 198 0.0 0.0 0.00 0.00 0.00 78 1016.6
20260903064958 79 198 0.0 0.0 0.00 0.00 0.00 78 1016.6
20260903064859 79 193 0.0 0.0 0.00 0.00 0.00 78 1016.6
20260903064758 79 242 0.0 0.0 0.00 0.00 0.00 78 1016.6
20260903064658 79 244 0.0 0.0 0.00 0.00 0.00 78 1016.6
20260903064558 79 225 0.0 0.0 0.00 0.00 0.00 78 1016.7
20260903064457 79 225 0.0 0.0 0.00 0.00 0.00 78 1016.6
20260903064259 79 225 0.0 0.0 0.00 0.00 0.00 78 1016.6
20260903064057 79 225 0.0 0.0 0.00 0.00 0.00 78 1016.6
20260903063957 79 225 0.0 0.0 0.00 0.00 0.00 78 1016.6
20260903063759 79 225 0.0 0.0 0.00 0.00 0.00 78 1016.6
20260903063658 79 225 0.0 0.0 0.00 0.00 0.00 78 1016.6
20260903063557 79 208 0.0 0.0 0.00 0.00 0.00 78 1016.6
20260903063458 79 208 0.0 0.0 0.00 0.00 0.00 78 1016.6
20260903063357 79 208 0.0 0.0 0.00 0.00 0.00 78 1016.7
20260903063300 79 208 0.0 0.0 0.00 0.00 0.00 78 1016.6
20260903063157 79 208 0.0 0.0 0.00 0.00 0.00 78 1016.6
20260903063058 79 208 0.0 0.0 0.00 0.00 0.00 78 1016.6
20260903062959 79 208 0.0 0.0 0.00 0.00 0.00 78 1016.6
20260903062859 79 208 0.0 0.0 0.00 0.00 0.00 78 1016.6
20260903062657 79 244 0.0 0.0 0.00 0.00 0.00 78 1016.7
20260903062557 79 244 0.0 0.0 0.00 0.00 0.00 78 1016.7
20260903062457 80 244 0.0 0.0 0.00 0.00 0.00 78 1016.7
20260903062357 79 227 0.0 0.0 0.00 0.00 0.00 78 1016.8
20260903062258 79 227 0.0 0.0 0.00 0.00 0.00 78 1016.8
20260903062157 79 227 0.0 0.0 0.00 0.00 0.00 78 1016.7
20260903062058 80 227 0.0 0.0 0.00 0.00 0.00 78 1016.7
20260903061958 80 244 0.0 0.0 0.00 0.00 0.00 78 1016.6
20260903061759 80 244 0.0 0.0 0.00 0.00 0.00 78 1016.6
20260903061658 80 244 0.0 0.0 0.00 0.00 0.00 78 1016.6
20260903061557 80 244 0.0 0.0 0.00 0.00 0.00 78 1016.6
20260903061458 80 244 0.0 0.0 0.00 0.00 0.00 78 1016.6
20260903061258 80 249 0.0 0.0 0.00 0.00 0.00 78 1016.6
20260903061157 80 205 0.0 0.0 0.00 0.00 0.00 78 1016.6
20260903061057 80 205 0.0 0.0 0.00 0.00 0.00 78 1016.6
20260903060857 80 205 0.0 0.0 0.00 0.00 0.00 78 1016.6
20260903060759 80 205 0.0 0.0 0.00 0.00 0.00 78 1016.6
20260903060657 80 205 0.0 0.0 0.00 0.00 0.00 78 1016.5
20260903060557 80 205 0.0 0.0 0.00 0.00 0.00 78 1016.5
20260903060359 80 205 0.0 0.0 0.00 0.00 0.00 77 1016.6
20260903060259 80 205 0.0 0.0 0.00 0.00 0.00 78 1016.6
20260903060158 80 205 0.0 0.0 0.00 0.00 0.00 78 1016.6
20260903060057 80 205 0.0 0.0 0.00 0.00 0.00 78 1016.5
20260903055958 80 205 0.0 0.0 0.00 0.00 0.00 78 1016.6
20260903055859 80 246 0.0 0.0 0.00 0.00 0.00 77 1016.5
20260903055757 80 246 0.0 0.0 0.00 0.00 0.00 77 1016.5
20260903055657 80 246 0.0 0.0 0.00 0.00 0.00 77 1016.6
20260903055559 80 246 0.0 0.0 0.00 0.00 0.00 77 1016.5
20260903055458 80 246 0.0 0.0 0.00 0.00 0.00 77 1016.5
20260903055159 80 223 0.0 0.0 0.00 0.00 0.00 77 1016.6
20260903055057 80 223 0.0 0.0 0.00 0.00 0.00 77 1016.5
20260903054958 80 223 0.0 0.0 0.00 0.00 0.00 77 1016.5
20260903054859 80 223 0.0 0.0 0.00 0.00 0.00 77 1016.6
20260903054757 80 223 0.0 0.0 0.00 0.00 0.00 77 1016.6
20260903054658 80 223 0.0 0.0 0.00 0.00 0.00 77 1016.6
20260903054558 80 223 0.0 0.0 0.00 0.00 0.00 77 1016.6
20260903054358 80 223 0.0 0.0 0.00 0.00 0.00 77 1016.6
20260903054257 80 223 0.0 0.0 0.00 0.00 0.00 77 1016.6
20260903054158 80 223 0.0 0.0 0.00 0.00 0.00 77 1016.6
20260903054057 80 223 0.0 0.0 0.00 0.00 0.00 77 1016.6
20260903053957 80 223 0.0 0.0 0.00 0.00 0.00 77 1016.6
20260903053759 81 259 0.0 0.0 0.00 0.00 0.00 77 1016.6
20260903053557 81 259 0.0 0.0 0.00 0.00 0.00 77 1016.6
20260903053458 81 259 0.0 0.0 0.00 0.00 0.00 77 1016.6
20260903053358 81 259 0.0 0.0 0.00 0.00 0.00 77 1016.6
20260903053258 81 259 0.0 0.0 0.00 0.00 0.00 77 1016.6
20260903053157 81 259 0.0 0.0 0.00 0.00 0.00 76 1016.6
20260903053058 81 259 0.0 0.0 0.00 0.00 0.00 76 1016.6
20260903052957 81 259 0.0 0.0 0.00 0.00 0.00 76 1016.5
20260903052858 81 259 0.0 0.0 0.00 0.00 0.00 76 1016.6
20260903052759 81 259 0.0 0.0 0.00 0.00 0.00 76 1016.6
20260903052559 81 259 0.0 0.0 0.00 0.00 0.00 76 1016.6
20260903052458 81 259 0.0 0.0 0.00 0.00 0.00 76 1016.5
20260903052357 81 310 0.0 0.0 0.00 0.00 0.00 76 1016.5
20260903052258 81 310 0.0 0.0 0.00 0.00 0.00 76 1016.5
20260903052158 81 308 0.0 0.0 0.00 0.00 0.00 76 1016.5
20260903052059 81 311 0.0 0.0 0.00 0.00 0.00 76 1016.6
20260903051958 81 312 0.0 0.0 0.00 0.00 0.00 76 1016.5
20260903051858 81 241 0.0 0.0 0.00 0.00 0.00 76 1016.5
20260903051757 81 260 0.0 0.0 0.00 0.00 0.00 76 1016.5
20260903051657 81 258 0.0 0.0 0.00 0.00 0.00 76 1016.5
20260903051559 81 255 0.0 0.0 0.00 0.00 0.00 76 1016.5
20260903051500 81 255 0.0 0.0 0.00 0.00 0.00 76 1016.4
20260903051358 81 78 0.0 0.0 0.00 0.00 0.00 76 1016.5
20260903051300 81 26 0.0 0.0 0.00 0.00 0.00 76 1016.5
20260903051158 81 247 0.0 0.0 0.00 0.00 0.00 76 1016.5
20260903051058 81 201 0.0 0.0 0.00 0.00 0.00 76 1016.5
20260903050958 81 206 0.0 0.0 0.00 0.00 0.00 76 1016.5
20260903050857 81 206 0.0 0.0 0.00 0.00 0.00 75 1016.5
20260903050758 81 206 0.0 0.0 0.00 0.00 0.00 76 1016.5
20260903050659 81 206 0.0 0.0 0.00 0.00 0.00 75 1016.5
20260903050558 81 206 0.0 0.0 0.00 0.00 0.00 75 1016.4
20260903050459 81 206 0.0 0.0 0.00 0.00 0.00 75 1016.5
20260903050358 81 206 0.0 0.0 0.00 0.00 0.00 75 1016.5
20260903050257 81 206 0.0 0.0 0.00 0.00 0.00 75 1016.5
20260903050158 81 208 0.0 0.0 0.00 0.00 0.00 75 1016.4
20260903050057 82 208 0.0 0.0 0.00 0.00 0.00 75 1016.5
20260903045959 82 208 0.0 0.0 0.00 0.00 0.00 75 1016.5
20260903045858 82 208 0.0 0.0 0.00 0.00 0.00 75 1016.5
20260903045758 82 208 0.0 0.0 0.00 0.00 0.00 75 1016.4
20260903045658 82 208 0.0 0.0 0.00 0.00 0.00 75 1016.4
20260903045559 82 208 0.0 0.0 0.00 0.00 0.00 75 1016.4
20260903045458 82 208 0.0 0.0 0.00 0.00 0.00 75 1016.4
20260903045357 82 223 0.0 0.0 0.00 0.00 0.00 75 1016.3
20260903045258 82 223 0.0 0.0 0.00 0.00 0.00 74 1016.3
20260903045157 82 223 0.0 0.0 0.00 0.00 0.00 75 1016.4
20260903045058 82 223 0.0 0.0 0.00 0.00 0.00 75 1016.3
20260903044958 82 223 0.0 0.0 0.00 0.00 0.00 74 1016.3
20260903044858 82 192 0.0 0.0 0.00 0.00 0.00 74 1016.3
20260903044757 82 192 0.0 0.0 0.00 0.00 0.00 75 1016.3
20260903044658 82 192 0.0 0.0 0.00 0.00 0.00 74 1016.3
20260903044559 82 192 0.0 0.0 0.00 0.00 0.00 74 1016.3
20260903044458 82 192 0.0 0.0 0.00 0.00 0.00 75 1016.3
20260903044358 82 191 0.0 0.0 0.00 0.00 0.00 75 1016.3
20260903044258 82 191 0.0 0.0 0.00 0.00 0.00 74 1016.3
20260903044159 82 289 0.0 0.0 0.00 0.00 0.00 74 1016.3
20260903044058 82 154 0.0 0.0 0.00 0.00 0.00 74 1016.3
20260903043959 82 203 0.0 0.0 0.00 0.00 0.00 74 1016.3
20260903043857 82 252 0.0 0.0 0.00 0.00 0.00 74 1016.3
20260903043759 82 317 0.0 0.0 0.00 0.00 0.00 74 1016.4
20260903043558 82 194 0.0 0.0 0.00 0.00 0.00 74 1016.3
20260903043501 82 196 0.0 0.0 0.00 0.00 0.00 74 1016.3
20260903043357 82 196 0.0 0.0 0.00 0.00 0.00 74 1016.3
20260903043257 82 181 0.0 0.0 0.00 0.00 0.00 74 1016.3
20260903043200 82 181 0.0 0.0 0.00 0.00 0.00 74 1016.3
20260903043100 82 181 0.0 0.0 0.00 0.00 0.00 74 1016.3
20260903042902 82 150 0.0 0.0 0.00 0.00 0.00 74 1016.4
20260903042801 82 192 0.0 0.0 0.00 0.00 0.00 74 1016.4
20260903042700 82 192 0.0 0.0 0.00 0.00 0.00 74 1016.4
20260903042600 82 222 0.0 0.0 0.00 0.00 0.00 74 1016.4
20260903042359 82 217 0.0 0.0 0.00 0.00 0.00 74 1016.4
20260903042200 82 217 0.0 0.0 0.00 0.00 0.00 74 1016.4
20260903042101 82 220 0.0 0.0 0.00 0.00 0.00 74 1016.4
20260903042001 82 205 0.0 0.0 0.00 0.00 0.00 74 1016.4
20260903041900 82 159 0.0 0.0 0.00 0.00 0.00 74 1016.5
20260903041759 82 159 0.0 0.0 0.00 0.00 0.00 74 1016.4
20260903041459 82 159 0.0 0.0 0.00 0.00 0.00 74 1016.4
20260903041359 82 159 0.0 0.0 0.00 0.00 0.00 74 1016.5
20260903041300 82 153 0.0 0.0 0.00 0.00 0.00 74 1016.5
20260903041200 82 153 0.0 0.0 0.00 0.00 0.00 73 1016.4
20260903041001 82 274 0.0 0.0 0.00 0.00 0.00 73 1016.4
20260903040800 82 227 0.0 0.0 0.00 0.00 0.00 73 1016.3
20260903040600 82 230 0.0 0.0 0.00 0.00 0.00 73 1016.4
20260903040502 82 198 0.0 0.0 0.00 0.00 0.00 73 1016.4
20260903040401 82 198 0.0 0.0 0.00 0.00 0.00 73 1016.4
20260903040300 82 198 0.0 0.0 0.00 0.00 0.00 73 1016.4
20260903040200 82 198 0.0 0.0 0.00 0.00 0.00 73 1016.4
20260903040101 82 198 0.0 0.0 0.00 0.00 0.00 73 1016.3
20260903040000 82 198 0.0 0.0 0.00 0.00 0.00 73 1016.3
20260903035859 82 198 0.0 0.0 0.00 0.00 0.00 73 1016.3
20260903035759 82 198 0.0 0.0 0.00 0.00 0.00 73 1016.3
20260903035559 82 198 0.0 0.0 0.00 0.00 0.00 73 1016.2
20260903035500 82 198 0.0 0.0 0.00 0.00 0.00 73 1016.3
20260903035359 82 198 0.0 0.0 0.00 0.00 0.00 73 1016.3
20260903035300 83 198 0.0 0.0 0.00 0.00 0.00 73 1016.3
20260903035200 83 198 0.0 0.0 0.00 0.00 0.00 73 1016.3
20260903035100 83 198 0.0 0.0 0.00 0.00 0.00 73 1016.2
20260903035000 83 211 0.0 0.0 0.00 0.00 0.00 73 1016.4
20260903034900 83 211 0.0 0.0 0.00 0.00 0.00 73 1016.4
20260903034800 83 241 0.0 0.0 0.00 0.00 0.00 72 1016.4
20260903034659 83 241 0.0 0.0 0.00 0.00 0.00 72 1016.5
20260903034600 83 259 0.0 0.0 0.00 0.00 0.00 72 1016.6
20260903034400 83 254 0.0 0.0 0.00 0.00 0.00 72 1016.5
20260903034259 83 254 0.0 0.0 0.00 0.00 0.00 72 1016.5
20260903033959 83 256 0.0 0.0 0.00 0.00 0.00 72 1016.5
20260903033800 83 194 0.0 0.0 0.00 0.00 0.00 72 1016.4
20260903033701 83 193 0.0 0.0 0.00 0.00 0.00 72 1016.4
20260903033559 83 193 0.0 0.0 0.00 0.00 0.00 72 1016.3
20260903033500 83 193 0.0 0.0 0.00 0.00 0.00 72 1016.4
20260903033400 83 193 0.0 0.0 0.00 0.00 0.00 72 1016.4
20260903033200 83 193 0.0 0.0 0.00 0.00 0.00 72 1016.4
20260903033059 83 193 0.0 0.0 0.00 0.00 0.00 72 1016.4
20260903033003 83 193 0.0 0.0 0.00 0.00 0.00 72 1016.4
20260903032859 83 174 0.0 0.0 0.00 0.00 0.00 72 1016.4
20260903032759 83 173 0.0 0.0 0.00 0.00 0.00 72 1016.4
20260903032659 83 174 0.0 0.0 0.00 0.00 0.00 71 1016.5
20260903032600 83 174 0.0 0.0 0.00 0.00 0.00 71 1016.4
20260903032500 83 174 0.0 0.0 0.00 0.00 0.00 71 1016.5
20260903032359 83 172 0.0 0.0 0.00 0.00 0.00 71 1016.5
20260903032259 83 154 0.0 0.0 0.00 0.00 0.00 71 1016.4
20260903032201 83 150 0.0 0.0 0.00 0.00 0.00 71 1016.5
20260903032059 83 150 0.0 0.0 0.00 0.00 0.00 71 1016.5
20260903032000 83 150 0.0 0.0 0.00 0.00 0.00 71 1016.5
20260903031759 83 150 0.0 0.0 0.00 0.00 0.00 71 1016.5
20260903031700 83 193 0.0 0.0 0.00 0.00 0.00 71 1016.5
20260903031502 83 204 0.0 0.0 0.00 0.00 0.00 71 1016.6
20260903031359 83 204 0.0 0.0 0.00 0.00 0.00 71 1016.6
20260903031301 83 204 0.0 0.0 0.00 0.00 0.00 71 1016.6
20260903031159 83 204 0.0 0.0 0.00 0.00 0.00 71 1016.6
20260903031100 83 204 0.0 0.0 0.00 0.00 0.00 71 1016.6
20260903030900 84 187 0.0 0.0 0.00 0.00 0.00 70 1016.7
20260903030800 84 187 0.0 0.0 0.00 0.00 0.00 70 1016.6
20260903030600 84 187 0.0 0.0 0.00 0.00 0.00 70 1016.6
20260903030459 84 187 0.0 0.0 0.00 0.00 0.00 70 1016.6
20260903030301 84 187 0.0 0.0 0.00 0.00 0.00 70 1016.7
20260903030202 84 187 0.0 0.0 0.00 0.00 0.00 70 1016.7
20260903030003 84 244 0.0 0.0 0.00 0.00 0.00 70 1016.6
20260903025901 84 244 0.0 0.0 0.00 0.00 0.00 70 1016.7
20260903025800 84 196 0.0 0.0 0.00 0.00 0.00 70 1016.7
20260903025600 84 185 0.0 0.0 0.00 0.00 0.00 70 1016.6
20260903025459 84 170 0.0 0.0 0.00 0.00 0.00 70 1016.7
20260903025402 84 194 0.0 0.0 0.00 0.00 0.00 70 1016.7
20260903025201 84 194 0.0 0.0 0.00 0.00 0.00 70 1016.7
20260903025059 84 194 0.0 0.0 0.00 0.00 0.00 70 1016.7
20260903024801 84 194 0.0 0.0 0.00 0.00 0.00 70 1016.7
20260903024700 84 183 0.0 0.0 0.00 0.00 0.00 70 1016.7
20260903024601 84 220 0.0 0.0 0.00 0.00 0.00 70 1016.7
20260903024500 84 253 0.0 0.0 0.00 0.00 0.00 70 1016.8
20260903024402 84 180 0.0 0.0 0.00 0.00 0.00 70 1016.8
20260903024300 84 180 0.0 0.0 0.00 0.00 0.00 70 1016.8
20260903024200 84 180 0.0 0.0 0.00 0.00 0.00 70 1016.8
20260903024100 84 180 0.0 0.0 0.00 0.00 0.00 70 1016.8
20260903024001 84 180 0.0 0.0 0.00 0.00 0.00 70 1016.9
20260903023900 84 180 0.0 0.0 0.00 0.00 0.00 70 1016.8
20260903023759 84 180 0.0 0.0 0.00 0.00 0.00 70 1016.8
20260903023700 84 180 0.0 0.0 0.00 0.00 0.00 70 1016.8
20260903023600 84 190 0.0 0.0 0.00 0.00 0.00 70 1016.8
20260903023500 84 190 0.0 0.0 0.00 0.00 0.00 70 1016.8
20260903023359 84 190 0.0 0.0 0.00 0.00 0.00 70 1016.8
20260903023302 84 190 0.0 0.0 0.00 0.00 0.00 70 1016.8
20260903023200 84 190 0.0 1.0 0.00 0.00 0.00 70 1016.8
20260903023100 84 190 0.0 1.0 0.00 0.00 0.00 70 1016.8
20260903022959 84 186 0.0 1.0 0.00 0.00 0.00 70 1016.7
20260903022900 84 186 0.0 1.0 0.00 0.00 0.00 70 1016.8
20260903022759 84 294 0.0 1.0 0.00 0.00 0.00 70 1016.8
20260903022703 84 137 0.0 1.0 0.00 0.00 0.00 70 1016.8
20260903022502 84 174 0.0 1.0 0.00 0.00 0.00 70 1016.8
20260903022300 84 173 0.0 1.0 0.00 0.00 0.00 70 1016.8
20260903022159 84 126 0.0 1.0 0.00 0.00 0.00 70 1016.7
20260903022059 84 126 0.0 1.0 0.00 0.00 0.00 70 1016.7
20260903022001 84 320 0.0 1.0 0.00 0.00 0.00 70 1016.8
20260903021900 84 304 1.0 1.0 0.00 0.00 0.00 70 1016.8
20260903021800 84 218 0.0 1.0 0.00 0.00 0.00 70 1016.8
20260903021700 84 223 0.0 1.0 0.00 0.00 0.00 70 1016.7
20260903021559 84 224 0.0 1.0 0.00 0.00 0.00 70 1016.8
20260903021500 84 224 0.0 1.0 0.00 0.00 0.00 70 1016.8
20260903021359 84 222 0.0 1.0 0.00 0.00 0.00 69 1016.8
20260903021259 84 222 0.0 1.0 0.00 0.00 0.00 69 1016.8
20260903020901 84 267 0.0 3.0 0.00 0.00 0.00 69 1016.9
20260903020800 84 234 0.0 3.0 0.00 0.00 0.00 69 1016.8
20260903020700 84 234 0.0 3.0 0.00 0.00 0.00 69 1016.8
20260903020501 84 234 0.0 3.0 0.00 0.00 0.00 69 1016.9
20260903020400 84 234 1.0 3.0 0.00 0.00 0.00 69 1016.9
20260903020300 84 254 2.0 3.0 0.00 0.00 0.00 69 1016.8
20260903020200 84 256 0.0 0.0 0.00 0.00 0.00 69 1016.9
20260903020100 84 277 0.0 0.0 0.00 0.00 0.00 69 1016.9
20260903020002 84 277 0.0 0.0 0.00 0.00 0.00 69 1016.9
20260903015901 84 277 0.0 0.0 0.00 0.00 0.00 69 1016.9
20260903015803 84 277 0.0 0.0 0.00 0.00 0.00 69 1016.9
20260903015600 84 184 0.0 0.0 0.00 0.00 0.00 69 1016.9
20260903015459 84 184 0.0 0.0 0.00 0.00 0.00 69 1016.8
20260903015401 84 184 0.0 0.0 0.00 0.00 0.00 69 1016.9
20260903015305 84 184 0.0 0.0 0.00 0.00 0.00 68 1016.9
20260903015200 84 184 0.0 0.0 0.00 0.00 0.00 68 1016.9
20260903015101 84 184 0.0 0.0 0.00 0.00 0.00 68 1016.9
20260903015000 84 184 0.0 0.0 0.00 0.00 0.00 68 1016.8
20260903014859 84 184 0.0 0.0 0.00 0.00 0.00 68 1016.8
20260903014800 84 184 0.0 0.0 0.00 0.00 0.00 68 1016.9
20260903014703 84 184 0.0 0.0 0.00 0.00 0.00 68 1016.7
20260903014600 84 184 0.0 0.0 0.00 0.00 0.00 68 1016.8
20260903014500 84 184 0.0 0.0 0.00 0.00 0.00 68 1016.7
20260903014401 84 184 0.0 0.0 0.00 0.00 0.00 68 1016.8
20260903014200 85 184 0.0 0.0 0.00 0.00 0.00 68 1016.7
20260903014100 85 184 0.0 0.0 0.00 0.00 0.00 68 1016.8
20260903014001 85 184 0.0 0.0 0.00 0.00 0.00 68 1016.8
20260903013900 85 229 0.0 0.0 0.00 0.00 0.00 67 1016.9
20260903013800 85 229 0.0 0.0 0.00 0.00 0.00 67 1016.9
20260903013600 85 229 0.0 0.0 0.00 0.00 0.00 67 1016.8
20260903013500 85 229 0.0 0.0 0.00 0.00 0.00 67 1016.7
20260903013301 85 229 0.0 0.0 0.00 0.00 0.00 67 1016.7
20260903013200 85 239 0.0 0.0 0.00 0.00 0.00 67 1016.7
20260903013001 85 224 0.0 0.0 0.00 0.00 0.00 67 1016.6
20260903012801 85 224 0.0 0.0 0.00 0.00 0.00 67 1016.5
20260903012701 85 224 0.0 0.0 0.00 0.00 0.00 66 1016.5
20260903012559 85 224 0.0 0.0 0.00 0.00 0.00 66 1016.5
20260903012502 85 224 0.0 0.0 0.00 0.00 0.00 66 1016.5
20260903012402 85 224 0.0 0.0 0.00 0.00 0.00 66 1016.5
20260903012259 85 224 0.0 0.0 0.00 0.00 0.00 66 1016.4
20260903012201 85 224 0.0 0.0 0.00 0.00 0.00 66 1016.4
20260903012059 85 224 0.0 0.0 0.00 0.00 0.00 66 1016.3
20260903012000 85 224 0.0 0.0 0.00 0.00 0.00 66 1016.4
20260903011900 85 224 0.0 0.0 0.00 0.00 0.00 65 1016.4
20260903011759 86 224 0.0 0.0 0.00 0.00 0.00 66 1016.3
20260903011703 86 224 0.0 0.0 0.00 0.00 0.00 65 1016.4
20260903011500 86 226 0.0 0.0 0.00 0.00 0.00 65 1016.3
20260903011401 86 226 0.0 0.0 0.00 0.00 0.00 65 1016.3
20260903011300 86 226 0.0 0.0 0.00 0.00 0.00 65 1016.3
20260903011200 86 222 0.0 0.0 0.00 0.00 0.00 65 1016.4
20260903011101 86 218 0.0 0.0 0.00 0.00 0.00 65 1016.3
20260903011000 86 218 0.0 0.0 0.00 0.00 0.00 65 1016.4
20260903010900 86 218 0.0 0.0 0.00 0.00 0.00 65 1016.3
20260903010600 86 249 0.0 0.0 0.00 0.00 0.00 65 1016.2
20260903010500 86 249 0.0 0.0 0.00 0.00 0.00 65 1016.2
20260903010400 86 255 0.0 0.0 0.00 0.00 0.00 65 1016.2
20260903010301 86 255 0.0 0.0 0.00 0.00 0.00 64 1016.2
20260903010201 86 257 0.0 0.0 0.00 0.00 0.00 65 1016.2
20260903010100 86 257 0.0 0.0 0.00 0.00 0.00 65 1016.1
20260903005900 86 257 0.0 0.0 0.00 0.00 0.00 64 1016.1
20260903005801 86 193 0.0 0.0 0.00 0.00 0.00 65 1016.1
20260903005400 86 273 0.0 0.0 0.00 0.00 0.00 64 1016.0
20260903005300 86 181 0.0 0.0 0.00 0.00 0.00 64 1016.1
20260903005201 86 202 0.0 0.0 0.00 0.00 0.00 64 1016.0
20260903004959 86 202 0.0 0.0 0.00 0.00 0.00 64 1016.0
20260903004900 87 202 0.0 0.0 0.00 0.00 0.00 64 1016.1
20260903004759 87 235 0.0 0.0 0.00 0.00 0.00 64 1016.1
20260903004659 87 235 0.0 0.0 0.00 0.00 0.00 63 1016.1
20260903004600 87 235 0.0 0.0 0.00 0.00 0.00 64 1016.0
20260903004359 87 135 0.0 0.0 0.00 0.00 0.00 64 1016.0
20260903004259 87 143 0.0 0.0 0.00 0.00 0.00 63 1016.0
20260903004100 87 214 0.0 0.0 0.00 0.00 0.00 63 1015.9
20260903004000 87 214 0.0 0.0 0.00 0.00 0.00 63 1016.0
20260903003859 87 214 0.0 0.0 0.00 0.00 0.00 63 1016.0
20260903003800 87 214 0.0 0.0 0.00 0.00 0.00 63 1015.9
20260903003700 87 212 0.0 0.0 0.00 0.00 0.00 63 1015.9
20260903003601 87 212 0.0 0.0 0.00 0.00 0.00 63 1016.0
20260903003500 87 212 0.0 0.0 0.00 0.00 0.00 63 1015.9
20260903003401 87 212 0.0 0.0 0.00 0.00 0.00 63 1015.9
20260903003259 87 212 0.0 0.0 0.00 0.00 0.00 63 1015.9
20260903003201 87 212 0.0 0.0 0.00 0.00 0.00 62 1015.9
20260903003000 88 188 0.0 0.0 0.00 0.00 0.00 63 1015.9
20260903002901 88 189 0.0 0.0 0.00 0.00 0.00 62 1015.9
20260903002801 88 189 0.0 0.0 0.00 0.00 0.00 62 1015.9
20260903002701 88 189 0.0 0.0 0.00 0.00 0.00 62 1015.9
20260903002600 88 189 0.0 3.0 0.00 0.00 0.00 62 1015.9
20260903002500 88 189 0.0 3.0 0.00 0.00 0.00 62 1015.9
20260903002400 88 189 0.0 3.0 0.00 0.00 0.00 62 1015.9
20260903002259 88 189 0.0 3.0 0.00 0.00 0.00 62 1016.0
20260903002059 88 176 0.0 3.0 0.00 0.00 0.00 62 1015.9
20260903002000 88 176 0.0 3.0 0.00 0.00 0.00 62 1015.9
20260903001900 88 206 0.0 3.0 0.00 0.00 0.00 62 1015.9
20260903001800 88 194 0.0 3.0 0.00 0.00 0.00 62 1015.9
20260903001700 88 115 1.0 1.0 0.00 0.00 0.00 62 1016.0
20260903001602 88 268 0.0 1.0 0.00 0.00 0.00 61 1015.9
20260903001500 88 213 0.0 3.0 0.00 0.00 0.00 61 1016.0
20260903001400 88 214 0.0 3.0 0.00 0.00 0.00 61 1015.9
20260903001200 88 190 0.0 3.0 0.00 0.00 0.00 61 1015.9
20260903001101 88 205 0.0 3.0 0.00 0.00 0.00 61 1015.9
20260903000700 89 232 0.0 3.0 0.00 0.00 0.00 61 1016.0
20260903000600 89 209 2.0 7.0 0.00 0.00 0.00 61 1016.1
20260903000500 89 207 0.0 7.0 0.00 0.00 0.00 61 1016.0
20260903000400 89 206 1.0 7.0 0.00 0.00 0.00 61 1016.0
20260903000303 89 169 0.0 7.0 0.00 0.00 0.00 61 1016.1
20260903000200 89 207 0.0 7.0 0.00 0.00 0.00 61 1016.0
20260903000059 89 182 0.0 7.0 0.00 0.00 0.00 61 1016.0
20260902235959 89 202 1.0 7.0 0.00 0.00 0.00 60 1016.0
20260902235900 89 219 0.0 7.0 0.00 0.00 0.00 61 1016.0
20260902235801 89 173 2.0 7.0 0.00 0.00 0.00 60 1016.0
20260902235701 89 141 0.0 3.0 0.00 0.00 0.00 61 1016.0
20260902235600 89 223 0.0 3.0 0.00 0.00 0.00 61 1016.0
20260902235501 89 233 0.0 3.0 0.00 0.00 0.00 61 1016.0
20260902235400 89 205 1.0 2.0 0.00 0.00 0.00 61 1016.0
20260902235200 89 265 0.0 2.0 0.00 0.00 0.00 61 1015.9
20260902235100 89 265 0.0 2.0 0.00 0.00 0.00 61 1016.0
20260902234959 89 170 2.0 2.0 0.00 0.00 0.00 60 1015.9
20260902234700 89 215 0.0 3.0 0.00 0.00 0.00 61 1016.0
20260902234600 89 220 0.0 3.0 0.00 0.00 0.00 60 1016.0
20260902234501 89 220 0.0 5.0 0.00 0.00 0.00 60 1016.0
20260902234401 89 273 0.0 5.0 0.00 0.00 0.00 61 1016.0
20260902234300 89 240 0.0 5.0 0.00 0.00 0.00 60 1016.0
20260902234201 90 293 0.0 5.0 0.00 0.00 0.00 60 1016.0
20260902234100 90 294 0.0 5.0 0.00 0.00 0.00 60 1015.9
20260902234000 90 219 3.0 5.0 0.00 0.00 0.00 60 1016.0
20260902233859 90 196 2.0 5.0 0.00 0.00 0.00 60 1016.0
20260902233701 90 173 3.0 5.0 0.00 0.00 0.00 60 1016.0
20260902233600 90 199 0.0 2.0 0.00 0.00 0.00 60 1016.1
20260902233501 90 200 0.0 2.0 0.00 0.00 0.00 60 1016.1
20260902233400 90 202 0.0 2.0 0.00 0.00 0.00 59 1016.0
20260902233300 90 259 0.0 2.0 0.00 0.00 0.00 60 1016.0
20260902233200 90 229 0.0 3.0 0.00 0.00 0.00 60 1016.0
20260902233001 90 196 0.0 3.0 0.00 0.00 0.00 60 1016.1
20260902232901 90 265 0.0 3.0 0.00 0.00 0.00 60 1016.1
20260902232800 90 203 0.0 3.0 0.00 0.00 0.00 60 1016.1
20260902232659 90 198 0.0 3.0 0.00 0.00 0.00 59 1016.0
20260902232602 90 208 1.0 3.0 0.00 0.00 0.00 59 1016.1
20260902232300 90 242 0.0 4.0 0.00 0.00 0.00 59 1016.1
20260902232200 90 155 0.0 4.0 0.00 0.00 0.00 59 1016.1
20260902232100 90 171 1.0 4.0 0.00 0.00 0.00 59 1016.1
20260902232001 90 181 0.0 4.0 0.00 0.00 0.00 59 1016.1
20260902231859 90 192 0.0 4.0 0.00 0.00 0.00 58 1016.1
20260902231800 90 287 1.0 4.0 0.00 0.00 0.00 58 1016.0
20260902231701 90 323 1.0 4.0 0.00 0.00 0.00 59 1016.1
20260902231602 90 218 2.0 6.0 0.00 0.00 0.00 59 1016.1
20260902231501 91 223 1.0 6.0 0.00 0.00 0.00 58 1016.0
20260902231300 91 182 0.0 6.0 0.00 0.00 0.00 59 1016.1
20260902231100 91 207 0.0 6.0 0.00 0.00 0.00 58 1016.2
20260902231001 91 213 2.0 6.0 0.00 0.00 0.00 58 1016.2
20260902230859 91 157 2.0 6.0 0.00 0.00 0.00 58 1016.2
20260902230800 91 200 2.0 6.0 0.00 0.00 0.00 58 1016.1
20260902230702 91 185 1.0 6.0 0.00 0.00 0.00 58 1016.2
20260902230601 91 173 0.0 6.0 0.00 0.00 0.00 59 1016.2
20260902230400 91 246 0.0 6.0 0.00 0.00 0.00 58 1016.2
20260902230201 91 185 1.0 6.0 0.00 0.00 0.00 57 1016.1
20260902225959 91 190 2.0 6.0 0.00 0.00 0.00 58 1016.2
20260902225859 91 66 0.0 6.0 0.00 0.00 0.00 57 1016.2
20260902225759 91 254 0.0 2.0 0.00 0.00 0.00 57 1016.2
20260902225659 91 209 1.0 2.0 0.00 0.00 0.00 58 1016.2
20260902225603 91 265 0.0 2.0 0.00 0.00 0.00 57 1016.2
20260902225459 91 163 0.0 2.0 0.00 0.00 0.00 56 1016.3
20260902225400 91 132 0.0 2.0 0.00 0.00 0.00 57 1016.2
20260902225259 91 64 0.0 2.0 0.00 0.00 0.00 57 1016.2
20260902225200 91 173 0.0 3.0 0.00 0.00 0.00 58 1016.3
20260902225059 92 201 0.0 4.0 0.00 0.00 0.00 58 1016.2
20260902224959 92 182 0.0 4.0 0.00 0.00 0.00 57 1016.3
20260902224758 92 196 0.0 4.0 0.00 0.00 0.00 57 1016.3
20260902224701 92 213 0.0 4.0 0.00 0.00 0.00 57 1016.3
20260902224559 92 189 0.0 4.0 0.00 0.00 0.00 57 1016.3
20260902224459 92 189 0.0 4.0 0.00 0.00 0.00 57 1016.3
20260902224359 92 211 1.0 4.0 0.00 0.00 0.00 56 1016.3
20260902224200 92 158 0.0 4.0 0.00 0.00 0.00 56 1016.3
20260902224059 92 200 1.0 4.0 0.00 0.00 0.00 56 1016.2
20260902223859 92 198 0.0 2.0 0.00 0.00 0.00 56 1016.3
20260902223801 92 246 0.0 2.0 0.00 0.00 0.00 57 1016.2
20260902223658 92 165 0.0 4.0 0.00 0.00 0.00 56 1016.3
20260902223559 92 257 0.0 4.0 0.00 0.00 0.00 56 1016.2
20260902223459 92 220 0.0 4.0 0.00 0.00 0.00 56 1016.2
20260902223359 92 288 0.0 6.0 0.00 0.00 0.00 56 1016.3
20260902223259 92 208 0.0 6.0 0.00 0.00 0.00 55 1016.3
20260902223100 92 209 0.0 6.0 0.00 0.00 0.00 55 1016.3
20260902223000 92 278 0.0 6.0 0.00 0.00 0.00 55 1016.3
20260902222859 92 300 2.0 6.0 0.00 0.00 0.00 55 1016.4
20260902222759 92 278 2.0 6.0 0.00 0.00 0.00 55 1016.3
20260902222659 92 158 2.0 6.0 0.00 0.00 0.00 55 1016.4
20260902222559 92 319 3.0 6.0 0.00 0.00 0.00 55 1016.5
20260902222459 92 146 0.0 7.0 0.00 0.00 0.00 55 1016.4
20260902222401 92 327 0.0 7.0 0.00 0.00 0.00 55 1016.4
20260902222259 92 188 2.0 7.0 0.00 0.00 0.00 55 1016.4
20260902222200 93 203 1.0 7.0 0.00 0.00 0.00 55 1016.4
20260902222059 93 234 2.0 7.0 0.00 0.00 0.00 55 1016.5
20260902221859 93 216 4.0 5.0 0.00 0.00 0.00 55 1016.5
20260902221759 93 98 2.0 5.0 0.00 0.00 0.00 55 1016.5
20260902221601 93 207 1.0 2.0 0.00 0.00 0.00 55 1016.5
20260902221459 93 254 0.0 8.0 0.00 0.00 0.00 55 1016.4
20260902221359 93 188 0.0 8.0 0.00 0.00 0.00 55 1016.4
20260902221300 93 273 0.0 8.0 0.00 0.00 0.00 55 1016.5
20260902221200 93 110 1.0 8.0 0.00 0.00 0.00 55 1016.5
20260902221059 93 333 1.0 8.0 0.00 0.00 0.00 54 1016.5
20260902220958 93 319 0.0 8.0 0.00 0.00 0.00 54 1016.5
20260902220859 93 313 1.0 8.0 0.00 0.00 0.00 54 1016.5
20260902220600 93 162 4.0 9.0 0.00 0.00 0.00 53 1016.5
20260902220459 93 180 4.0 9.0 0.00 0.00 0.00 53 1016.5
20260902220400 93 213 1.0 7.0 0.00 0.00 0.00 53 1016.5
20260902220259 94 173 2.0 7.0 0.00 0.00 0.00 53 1016.5
20260902220158 94 188 5.0 7.0 0.00 0.00 0.00 53 1016.5
20260902220059 94 107 1.0 7.0 0.00 0.00 0.00 53 1016.5
20260902220000 94 190 2.0 7.0 0.00 0.00 0.00 54 1016.4
20260902215759 94 169 4.0 7.0 0.00 0.00 0.00 53 1016.5
20260902215500 94 190 0.0 3.0 0.00 0.00 0.00 54 1016.4
20260902215359 94 171 0.0 3.0 0.00 0.00 0.00 53 1016.4
20260902215259 94 145 0.0 3.0 0.00 0.00 0.00 53 1016.4
20260902215200 94 194 0.0 3.0 0.00 0.00 0.00 53 1016.4
20260902215001 94 348 0.0 5.0 0.00 0.00 0.00 54 1016.5
20260902214859 94 200 1.0 5.0 0.00 0.00 0.00 53 1016.4
20260902214700 94 252 0.0 5.0 0.00 0.00 0.00 54 1016.5
20260902214559 94 263 0.0 5.0 0.00 0.00 0.00 54 1016.5
20260902214459 94 125 0.0 5.0 0.00 0.00 0.00 55 1016.6
20260902214358 94 315 0.0 5.0 0.00 0.00 0.00 53 1016.5
20260902214302 94 167 0.0 5.0 0.00 0.00 0.00 53 1016.5
20260902214158 94 150 0.0 3.0 0.00 0.00 0.00 54 1016.6
20260902214102 94 196 0.0 2.0 0.00 0.00 0.00 54 1016.5
20260902214002 94 140 0.0 3.0 0.00 0.00 0.00 54 1016.5
20260902213759 94 254 0.0 3.0 0.00 0.00 0.00 53 1016.5
20260902213700 94 267 0.0 3.0 0.00 0.00 0.00 53 1016.5
20260902213503 94 247 0.0 7.0 0.00 0.00 0.00 54 1016.6
20260902213400 94 259 0.0 7.0 0.00 0.00 0.00 53 1016.5
20260902213259 94 243 1.0 7.0 0.00 0.00 0.00 53 1016.5
20260902213200 94 160 1.0 7.0 0.00 0.00 0.00 53 1016.6
20260902213100 94 225 0.0 7.0 0.00 0.00 0.00 52 1016.6
20260902212959 94 208 0.0 7.0 0.00 0.00 0.00 53 1016.5
20260902212859 94 98 0.0 5.0 0.00 0.00 0.00 53 1016.5
20260902212800 94 173 1.0 5.0 0.00 0.00 0.00 53 1016.6
20260902212657 94 173 1.0 5.0 0.00 0.00 0.00 53 1016.6
20260902212559 94 205 0.0 5.0 0.00 0.00 0.00 53 1016.6
20260902212358 94 286 1.0 5.0 0.00 0.00 0.00 51 1016.6
20260902212257 94 287 2.0 4.0 0.00 0.00 0.00 52 1016.6
20260902212158 94 294 0.0 4.0 0.00 0.00 0.00 51 1016.5
20260902212058 94 119 0.0 6.0 0.00 0.00 0.00 51 1016.5
20260902211958 94 202 0.0 9.0 0.00 0.00 0.00 52 1016.5
20260902211858 95 179 0.0 9.0 0.00 0.00 0.00 51 1016.6
20260902211757 95 231 0.0 9.0 0.00 0.00 0.00 51 1016.6
20260902211659 95 119 0.0 9.0 0.00 0.00 0.00 51 1016.6
20260902211558 95 289 4.0 9.0 0.00 0.00 0.00 52 1016.6
20260902211458 95 135 2.0 9.0 0.00 0.00 0.00 51 1016.6
20260902211357 95 203 1.0 9.0 0.00 0.00 0.00 51 1016.6
20260902211258 95 172 0.0 9.0 0.00 0.00 0.00 51 1016.6
20260902211158 95 184 8.0 10.0 0.00 0.00 0.00 52 1016.7
20260902210957 95 218 2.0 6.0 0.00 0.00 0.00 51 1016.6
20260902210859 95 298 3.0 6.0 0.00 0.00 0.00 52 1016.8
20260902210758 95 302 0.0 6.0 0.00 0.00 0.00 52 1016.7
20260902210658 95 311 2.0 6.0 0.00 0.00 0.00 52 1016.6
20260902210557 95 40 0.0 5.0 0.00 0.00 0.00 52 1016.7
20260902210458 95 160 0.0 7.0 0.00 0.00 0.00 51 1016.7
20260902210159 95 176 2.0 7.0 0.00 0.00 0.00 52 1016.7
20260902210059 95 190 3.0 7.0 0.00 0.00 0.00 52 1016.6
20260902205959 94 182 2.0 7.0 0.00 0.00 0.00 52 1016.6
20260902205858 94 276 1.0 7.0 0.00 0.00 0.00 53 1016.7
20260902205759 94 247 0.0 7.0 0.00 0.00 0.00 52 1016.7
20260902205657 94 173 6.0 6.0 0.00 0.00 0.00 53 1016.7
20260902205559 94 316 2.0 3.0 0.00 0.00 0.00 53 1016.6
20260902205458 94 174 1.0 4.0 0.00 0.00 0.00 52 1016.7
20260902205358 94 252 0.0 4.0 0.00 0.00 0.00 53 1016.7
20260902205158 94 180 0.0 4.0 0.00 0.00 0.00 52 1016.8
20260902205058 94 180 0.0 4.0 0.00 0.00 0.00 52 1016.7
20260902204957 94 175 0.0 4.0 0.00 0.00 0.00 51 1016.8
20260902204857 94 204 0.0 4.0 0.00 0.00 0.00 52 1016.8
20260902204559 95 321 0.0 4.0 0.00 0.00 0.00 52 1016.7
20260902204459 95 173 0.0 4.0 0.00 0.00 0.00 51 1016.8
20260902204358 95 173 0.0 4.0 0.00 0.00 0.00 51 1016.8
20260902204258 95 150 0.0 4.0 0.00 0.00 0.00 50 1016.8
20260902204158 95 246 0.0 4.0 0.00 0.00 0.00 52 1016.8
20260902204100 95 239 0.0 4.0 0.00 0.00 0.00 52 1016.8
20260902203959 95 211 2.0 4.0 0.00 0.00 0.00 52 1016.8
20260902203858 95 345 0.0 4.0 0.00 0.00 0.00 51 1016.8
20260902203758 95 216 0.0 4.0 0.00 0.00 0.00 51 1016.8
20260902203658 95 215 0.0 8.0 0.00 0.00 0.00 51 1016.8
20260902203557 95 145 0.0 8.0 0.00 0.00 0.00 50 1016.8
20260902203458 95 145 0.0 9.0 0.00 0.00 0.00 49 1016.9
20260902203357 96 271 0.0 9.0 0.00 0.00 0.00 49 1016.9
20260902203158 96 191 2.0 9.0 0.00 0.00 0.00 49 1016.8
20260902203058 96 204 2.0 9.0 0.00 0.00 0.00 49 1016.9
20260902202957 96 263 2.0 9.0 0.00 0.00 0.00 49 1016.9
20260902202900 96 161 2.0 9.0 0.00 0.00 0.00 50 1016.9
20260902202758 96 223 1.0 9.0 0.00 0.00 0.00 50 1016.8
20260902202659 96 97 2.0 9.0 0.00 0.00 0.00 50 1016.8
20260902202558 96 344 3.0 9.0 0.00 0.00 0.00 50 1016.9
20260902202457 96 224 4.0 7.0 0.00 0.00 0.00 50 1016.9
20260902202358 96 152 4.0 7.0 0.00 0.00 0.00 51 1016.9
20260902202258 96 38 0.0 7.0 0.00 0.00 0.00 50 1016.9
20260902202200 96 237 1.0 7.0 0.00 0.00 0.00 50 1016.9
20260902201959 96 189 3.0 7.0 0.00 0.00 0.00 49 1016.9
20260902201859 96 173 0.0 7.0 0.00 0.00 0.00 50 1016.9
20260902201758 96 150 4.0 6.0 0.00 0.00 0.00 50 1016.9
20260902201659 96 166 0.0 6.0 0.00 0.00 0.00 51 1016.9
20260902201558 96 194 1.0 6.0 0.00 0.00 0.00 51 1016.9
20260902201458 96 62 1.0 6.0 0.00 0.00 0.00 52 1016.9
20260902201358 96 355 0.0 6.0 0.00 0.00 0.00 51 1016.8
20260902201258 96 135 2.0 6.0 0.00 0.00 0.00 52 1016.9
20260902201158 96 197 1.0 6.0 0.00 0.00 0.00 50 1016.9
20260902201058 96 193 2.0 6.0 0.00 0.00 0.00 50 1016.9
20260902201000 96 18 1.0 5.0 0.00 0.00 0.00 51 1016.8
20260902200858 96 227 0.0 3.0 0.00 0.00 0.00 52 1016.9
20260902200658 96 163 0.0 5.0 0.00 0.00 0.00 51 1016.9
20260902200558 96 221 0.0 5.0 0.00 0.00 0.00 50 1017.0
20260902200459 96 175 0.0 5.0 0.00 0.00 0.00 50 1016.9
20260902200358 96 165 1.0 5.0 0.00 0.00 0.00 51 1016.9
20260902200257 96 188 0.0 5.0 0.00 0.00 0.00 51 1017.0
20260902200158 96 13 0.0 5.0 0.00 0.00 0.00 50 1017.0
20260902200101 96 205 0.0 6.0 0.00 0.00 0.00 51 1017.0
20260902195957 96 159 0.0 6.0 0.00 0.00 0.00 50 1017.0
20260902195858 96 231 3.0 6.0 0.00 0.00 0.00 50 1017.0
20260902195700 96 275 4.0 6.0 0.00 0.00 0.00 51 1017.0
20260902195600 96 213 0.0 6.0 0.00 0.00 0.00 50 1017.0
20260902195400 96 288 0.0 6.0 0.00 0.00 0.00 53 1017.1
20260902195300 96 194 0.0 6.0 0.00 0.00 0.00 51 1017.1
20260902195159 96 360 0.0 6.0 0.00 0.00 0.00 50 1017.0
20260902195100 96 182 0.0 7.0 0.00 0.00 0.00 53 1017.0
20260902194959 95 332 0.0 9.0 0.00 0.00 0.00 54 1017.0
20260902194659 95 212 1.0 9.0 0.00 0.00 0.00 52 1017.2
20260902194458 95 187 0.0 9.0 0.00 0.00 0.00 51 1017.1
20260902194359 95 30 0.0 9.0 0.00 0.00 0.00 52 1017.1
20260902194258 95 331 2.0 9.0 0.00 0.00 0.00 51 1017.1
20260902194158 95 158 2.0 9.0 0.00 0.00 0.00 51 1017.1
20260902193959 95 164 2.0 6.0 0.00 0.00 0.00 53 1017.2
20260902193858 95 208 0.0 6.0 0.00 0.00 0.00 51 1017.3
20260902193800 95 346 0.0 6.0 0.00 0.00 0.00 53 1017.3
20260902193700 95 193 0.0 6.0 0.00 0.00 0.00 51 1017.3
20260902193600 95 318 0.0 6.0 0.00 0.00 0.00 51 1017.3
20260902193459 95 157 1.0 6.0 0.00 0.00 0.00 51 1017.3
20260902193358 95 132 1.0 6.0 0.00 0.00 0.00 51 1017.3
20260902193300 95 296 2.0 6.0 0.00 0.00 0.00 51 1017.3
20260902193159 95 216 1.0 6.0 0.00 0.00 0.00 51 1017.4
20260902193101 95 290 5.0 6.0 0.00 0.00 0.00 51 1017.3
20260902193000 95 242 3.0 6.0 0.00 0.00 0.00 51 1017.4
20260902192859 95 201 1.0 4.0 0.00 0.00 0.00 53 1017.3
20260902192800 95 147 0.0 4.0 0.00 0.00 0.00 53 1017.4
20260902192659 95 198 4.0 4.0 0.00 0.00 0.00 54 1017.3
20260902192459 94 346 2.0 4.0 0.00 0.00 0.00 53 1017.4
20260902192359 94 142 0.0 4.0 0.00 0.00 0.00 51 1017.4
20260902192259 94 157 1.0 5.0 0.00 0.00 0.00 53 1017.4
20260902192058 94 246 0.0 5.0 0.00 0.00 0.00 53 1017.5
20260902191958 94 294 1.0 5.0 0.00 0.00 0.00 52 1017.5
20260902191759 94 262 4.0 9.0 0.00 0.00 0.00 53 1017.5
20260902191659 94 244 0.0 9.0 0.00 0.00 0.00 52 1017.5
20260902191600 94 304 0.0 9.0 0.00 0.00 0.00 52 1017.5
20260902191459 94 165 2.0 9.0 0.00 0.00 0.00 52 1017.6
20260902191358 95 329 3.0 9.0 0.00 0.00 0.00 52 1017.5
20260902191300 95 201 2.0 9.0 0.00 0.00 0.00 52 1017.5
20260902191158 95 190 2.0 9.0 0.00 0.00 0.00 51 1017.5
20260902191101 95 223 1.0 9.0 0.00 0.00 0.00 51 1017.5
20260902190959 95 215 2.0 9.0 0.00 0.00 0.00 50 1017.7
20260902190859 95 208 3.0 10.0 0.00 0.00 0.00 53 1017.6
20260902190759 95 175 0.0 10.0 0.00 0.00 0.00 51 1017.5
20260902190659 95 191 0.0 10.0 0.00 0.00 0.00 52 1017.5
20260902190559 95 277 2.0 10.0 0.00 0.00 0.00 52 1017.6
20260902190359 95 32 0.0 10.0 0.00 0.00 0.00 52 1017.7
20260902190300 95 178 2.0 10.0 0.00 0.00 0.00 52 1017.6
20260902190159 95 257 4.0 6.0 0.00 0.00 0.00 54 1017.6
20260902185958 94 225 2.0 3.0 0.00 0.00 0.00 55 1017.5
20260902185800 94 20 1.0 4.0 0.00 0.00 0.00 53 1017.6
20260902185558 94 292 0.0 4.0 0.00 0.00 0.00 52 1017.7
20260902185459 94 291 2.0 4.0 0.00 0.00 0.00 53 1017.7
20260902185400 94 254 0.0 4.0 0.00 0.00 0.00 53 1017.6
20260902185300 94 162 0.0 4.0 0.00 0.00 0.00 55 1017.6
20260902185200 94 178 1.0 4.0 0.00 0.00 0.00 54 1017.6
20260902185058 94 5 1.0 4.0 0.00 0.00 0.00 53 1017.6
20260902184800 94 121 0.0 9.0 0.00 0.00 0.00 52 1017.6
20260902184659 94 202 1.0 9.0 0.00 0.00 0.00 52 1017.6
20260902184558 94 207 1.0 9.0 0.00 0.00 0.00 53 1017.7
20260902184458 94 213 0.0 9.0 0.00 0.00 0.00 52 1017.6
20260902184400 94 111 0.0 9.0 0.00 0.00 0.00 53 1017.8
20260902184259 94 259 2.0 9.0 0.00 0.00 0.00 53 1017.7
20260902184159 94 47 2.0 9.0 0.00 0.00 0.00 53 1017.8
20260902184059 94 92 0.0 9.0 0.00 0.00 0.00 52 1017.9
20260902183859 94 32 0.0 4.0 0.00 0.00 0.00 54 1017.8
20260902183759 94 309 2.0 4.0 0.00 0.00 0.00 53 1017.8
20260902183700 94 161 1.0 4.0 0.00 0.00 0.00 55 1017.8
20260902183559 94 142 1.0 4.0 0.00 0.00 0.00 52 1017.8
20260902183501 94 215 3.0 7.0 0.00 0.00 0.00 52 1017.8
20260902183359 94 263 1.0 7.0 0.00 0.00 0.00 51 1017.8
20260902183258 94 188 1.0 7.0 0.00 0.00 0.00 52 1017.8
20260902183200 94 162 0.0 7.0 0.00 0.00 0.00 51 1017.8
20260902183058 95 160 1.0 7.0 0.00 0.00 0.00 52 1017.8
20260902182959 95 209 1.0 7.0 0.00 0.00 0.00 52 1017.9
20260902182858 95 207 1.0 7.0 0.00 0.00 0.00 52 1017.9
20260902182600 94 291 2.0 6.0 0.00 0.00 0.00 53 1017.9
20260902182500 94 349 0.0 6.0 0.00 0.00 0.00 54 1017.9
20260902182358 94 167 0.0 6.0 0.00 0.00 0.00 55 1017.9
20260902182300 94 320 0.0 6.0 0.00 0.00 0.00 57 1017.9
20260902181959 94 159 0.0 6.0 0.00 0.00 0.00 54 1017.8
20260902181859 93 178 0.0 6.0 0.00 0.00 0.00 54 1017.8
20260902181758 93 360 0.0 10.0 0.00 0.00 0.00 55 1017.8
20260902181658 93 158 0.0 10.0 0.00 0.00 0.00 55 1017.8
20260902181600 93 165 2.0 10.0 0.00 0.00 0.00 55 1017.8
20260902181459 93 160 0.0 10.0 0.00 0.00 0.00 55 1017.9
20260902181300 93 150 0.0 10.0 0.00 0.00 0.00 53 1017.9
20260902181159 94 190 0.0 10.0 0.00 0.00 0.00 54 1017.9
20260902181059 94 204 3.0 10.0 0.00 0.00 0.00 53 1018.0
20260902180959 94 146 4.0 9.0 0.00 0.00 0.00 54 1017.9
20260902180900 94 146 2.0 7.0 0.00 0.00 0.00 53 1017.9
20260902180800 94 202 2.0 7.0 0.00 0.00 0.00 53 1018.0
20260902180659 94 167 3.0 7.0 0.00 0.00 0.00 54 1018.0
20260902180358 94 360 1.0 7.0 0.00 0.00 0.00 53 1018.0
20260902180159 94 329 1.0 5.0 0.00 0.00 0.00 55 1018.0
20260902180059 94 334 0.0 5.0 0.00 0.00 0.00 54 1018.0
20260902175958 94 351 0.0 5.0 0.00 0.00 0.00 53 1018.1
20260902175859 94 355 0.0 5.0 0.00 0.00 0.00 53 1018.1
20260902175757 94 70 0.0 5.0 0.00 0.00 0.00 53 1018.0
20260902175657 94 323 2.0 5.0 0.00 0.00 0.00 52 1018.0
20260902175559 94 165 0.0 4.0 0.00 0.00 0.00 53 1018.1
20260902175457 94 311 0.0 4.0 0.00 0.00 0.00 54 1018.1
20260902175357 94 199 0.0 4.0 0.00 0.00 0.00 52 1018.1
20260902175258 94 199 3.0 4.0 0.00 0.00 0.00 52 1018.2
20260902175100 94 188 1.0 4.0 0.00 0.00 0.00 55 1018.1
20260902174959 94 153 1.0 5.0 0.00 0.00 0.00 55 1018.1
20260902174759 94 338 0.0 5.0 0.00 0.00 0.00 56 1018.1
20260902174658 94 248 3.0 7.0 0.00 0.00 0.00 55 1018.1
20260902174558 94 204 1.0 7.0 0.00 0.00 0.00 55 1018.1
20260902174458 94 225 1.0 7.0 0.00 0.00 0.00 56 1018.2
20260902174358 94 211 2.0 7.0 0.00 0.00 0.00 56 1018.2
20260902174258 94 244 0.0 7.0 0.00 0.00 0.00 55 1018.2
20260902174059 94 120 2.0 7.0 0.00 0.00 0.00 55 1018.2
20260902173958 94 215 0.0 7.0 0.00 0.00 0.00 55 1018.2
20260902173857 94 188 0.0 7.0 0.00 0.00 0.00 55 1018.3
20260902173658 93 214 0.0 8.0 0.00 0.00 0.00 56 1018.3
20260902173558 93 175 0.0 8.0 0.00 0.00 0.00 55 1018.3
20260902173458 93 84 1.0 9.0 0.00 0.00 0.00 55 1018.3
20260902173357 93 132 1.0 9.0 0.00 0.00 0.00 54 1018.4
20260902173258 93 255 2.0 9.0 0.00 0.00 0.00 55 1018.3
20260902173058 93 91 2.0 9.0 0.00 0.00 0.00 54 1018.3
20260902172957 93 175 7.0 9.0 0.00 0.00 0.00 55 1018.3
20260902172858 93 336 5.0 9.0 0.00 0.00 0.00 56 1018.4
20260902172657 93 194 3.0 10.0 0.00 0.00 0.00 55 1018.3
20260902172559 93 177 3.0 6.0 0.00 0.00 0.00 55 1018.3
20260902172458 93 227 1.0 6.0 0.00 0.00 0.00 55 1018.4
20260902172258 93 181 1.0 6.0 0.00 0.00 0.00 57 1018.3
20260902172157 93 55 0.0 6.0 0.00 0.00 0.00 56 1018.4
20260902171957 93 121 1.0 6.0 0.00 0.00 0.00 56 1018.4
20260902171858 93 186 0.0 6.0 0.00 0.00 0.00 55 1018.4
20260902171758 93 188 1.0 6.0 0.00 0.00 0.00 55 1018.4
20260902171658 93 82 1.0 6.0 0.00 0.00 0.00 54 1018.4
20260902171557 93 167 1.0 6.0 0.00 0.00 0.00 55 1018.4
20260902171459 93 250 3.0 6.0 0.00 0.00 0.00 55 1018.4
20260902171357 93 157 3.0 6.0 0.00 0.00 0.00 56 1018.4
20260902171258 93 174 1.0 6.0 0.00 0.00 0.00 56 1018.5
20260902171158 93 344 0.0 6.0 0.00 0.00 0.00 56 1018.4
20260902171058 93 127 1.0 7.0 0.00 0.00 0.00 58 1018.5
20260902170958 93 189 1.0 7.0 0.00 0.00 0.00 57 1018.4
20260902170858 93 333 0.0 7.0 0.00 0.00 0.00 56 1018.4
20260902170757 93 180 2.0 8.0 0.00 0.00 0.00 55 1018.5
20260902170657 93 271 3.0 8.0 0.00 0.00 0.00 55 1018.5
20260902170458 93 249 1.0 8.0 0.00 0.00 0.00 54 1018.5
20260902170258 93 172 5.0 8.0 0.00 0.00 0.00 54 1018.5
20260902170057 93 299 3.0 8.0 0.00 0.00 0.00 55 1018.5
20260902170000 93 177 5.0 8.0 0.00 0.00 0.00 55 1018.5
20260902165859 94 157 6.0 9.0 0.00 0.00 0.00 55 1018.5
20260902165558 94 30 4.0 7.0 0.00 0.00 0.00 56 1018.6
20260902165459 94 165 4.0 7.0 0.00 0.00 0.00 57 1018.6
20260902165358 94 306 1.0 4.0 0.00 0.00 0.00 55 1018.5
20260902165259 93 204 3.0 5.0 0.00 0.00 0.00 58 1018.6
20260902165157 93 100 0.0 5.0 0.00 0.00 0.00 57 1018.6
20260902165100 93 163 0.0 6.0 0.00 0.00 0.00 57 1018.6
20260902164957 93 335 1.0 6.0 0.00 0.00 0.00 57 1018.6
20260902164759 93 245 0.0 6.0 0.00 0.00 0.00 55 1018.6
20260902164657 93 342 0.0 6.0 0.00 0.00 0.00 58 1018.5
20260902164558 93 178 0.0 6.0 0.00 0.00 0.00 57 1018.6
20260902164457 93 155 0.0 6.0 0.00 0.00 0.00 56 1018.5
20260902164357 93 28 0.0 6.0 0.00 0.00 0.00 55 1018.6
20260902164300 93 229 2.0 6.0 0.00 0.00 0.00 54 1018.6
20260902164058 93 192 2.0 3.0 0.00 0.00 0.00 58 1018.6
20260902163958 93 173 2.0 3.0 0.00 0.00 0.00 57 1018.6
20260902163858 93 169 0.0 6.0 0.00 0.00 0.00 58 1018.6
20260902163759 93 161 1.0 6.0 0.00 0.00 0.00 58 1018.6
20260902163659 93 159 0.0 6.0 0.00 0.00 0.00 58 1018.6
20260902163559 93 163 0.0 6.0 0.00 0.00 0.00 58 1018.7
20260902163458 93 161 0.0 6.0 0.00 0.00 0.00 59 1018.6
20260902163358 92 93 0.0 7.0 0.00 0.00 0.00 60 1018.7
20260902163259 92 233 0.0 7.0 0.00 0.00 0.00 57 1018.6
20260902163158 92 154 2.0 7.0 0.00 0.00 0.00 57 1018.7
20260902163057 92 146 1.0 7.0 0.00 0.00 0.00 58 1018.7
20260902162959 92 173 5.0 7.0 0.00 0.00 0.00 59 1018.7
20260902162857 92 180 1.0 11.0 0.00 0.00 0.00 60 1018.7
20260902162759 92 341 0.0 11.0 0.00 0.00 0.00 58 1018.7
20260902162657 92 299 1.0 11.0 0.00 0.00 0.00 58 1018.8
20260902162558 92 275 1.0 11.0 0.00 0.00 0.00 58 1018.8
20260902162458 92 276 3.0 11.0 0.00 0.00 0.00 57 1018.8
20260902162257 92 171 4.0 11.0 0.00 0.00 0.00 57 1018.8
20260902162158 92 184 4.0 11.0 0.00 0.00 0.00 56 1018.7
20260902162058 92 192 3.0 11.0 0.00 0.00 0.00 57 1018.7
20260902161957 92 169 6.0 6.0 0.00 0.00 0.00 59 1018.7
20260902161858 92 284 3.0 6.0 0.00 0.00 0.00 59 1018.7
20260902161800 92 227 0.0 6.0 0.00 0.00 0.00 58 1018.8
20260902161658 92 236 0.0 8.0 0.00 0.00 0.00 58 1018.7
20260902161557 92 212 1.0 8.0 0.00 0.00 0.00 57 1018.7
20260902161459 92 140 3.0 8.0 0.00 0.00 0.00 57 1018.7
20260902161359 92 175 3.0 8.0 0.00 0.00 0.00 57 1018.8
20260902161259 92 248 0.0 8.0 0.00 0.00 0.00 58 1018.7
20260902161158 92 165 1.0 8.0 0.00 0.00 0.00 59 1018.7
20260902161057 92 128 1.0 8.0 0.00 0.00 0.00 58 1018.8
20260902160959 92 190 4.0 8.0 0.00 0.00 0.00 58 1018.8
20260902160858 92 295 1.0 8.0 0.00 0.00 0.00 57 1018.7
20260902160757 92 296 1.0 6.0 0.00 0.00 0.00 58 1018.8
20260902160659 92 243 3.0 6.0 0.00 0.00 0.00 58 1018.7
20260902160559 92 13 0.0 6.0 0.00 0.00 0.00 58 1018.8
20260902160457 92 335 3.0 6.0 0.00 0.00 0.00 59 1018.8
20260902160258 92 267 2.0 6.0 0.00 0.00 0.00 59 1018.7
20260902160159 92 203 0.0 6.0 0.00 0.00 0.00 58 1018.8
20260902155957 92 236 1.0 5.0 0.00 0.00 0.00 59 1018.7
20260902155757 92 5 1.0 5.0 0.00 0.00 0.00 58 1018.8
20260902155657 92 225 1.0 5.0 0.00 0.00 0.00 57 1018.8
20260902155559 92 216 1.0 5.0 0.00 0.00 0.00 59 1018.9
20260902155457 92 144 2.0 5.0 0.00 0.00 0.00 59 1018.9
20260902155358 92 176 0.0 5.0 0.00 0.00 0.00 58 1018.9
20260902155157 92 184 3.0 5.0 0.00 0.00 0.00 58 1018.9
20260902155058 92 302 0.0 5.0 0.00 0.00 0.00 58 1018.9
20260902154958 92 236 0.0 6.0 0.00 0.00 0.00 59 1018.8
20260902154857 92 267 1.0 6.0 0.00 0.00 0.00 59 1018.9
20260902154759 92 294 1.0 6.0 0.00 0.00 0.00 59 1018.9
20260902154558 92 181 2.0 6.0 0.00 0.00 0.00 59 1019.0
20260902154358 92 217 1.0 6.0 0.00 0.00 0.00 59 1018.9
20260902154158 92 238 2.0 7.0 0.00 0.00 0.00 59 1019.0
20260902154059 92 124 1.0 6.0 0.00 0.00 0.00 59 1019.0
20260902153858 92 173 1.0 6.0 0.00 0.00 0.00 59 1019.0
20260902153759 92 142 1.0 6.0 0.00 0.00 0.00 59 1019.0
20260902153659 92 198 2.0 6.0 0.00 0.00 0.00 60 1019.1
20260902153558 92 109 2.0 3.0 0.00 0.00 0.00 61 1019.0
20260902153457 92 194 1.0 3.0 0.00 0.00 0.00 61 1019.0
20260902153359 92 190 1.0 3.0 0.00 0.00 0.00 60 1019.0
20260902153158 91 157 0.0 4.0 0.00 0.00 0.00 62 1019.0
20260902152958 91 85 0.0 4.0 0.00 0.00 0.00 60 1019.1
20260902152758 91 300 0.0 4.0 0.00 0.00 0.00 62 1019.0
20260902152659 91 242 1.0 4.0 0.00 0.00 0.00 62 1019.0
20260902152559 91 167 3.0 4.0 0.00 0.00 0.00 62 1019.0
20260902152458 91 194 0.0 4.0 0.00 0.00 0.00 62 1019.0
20260902152359 91 163 0.0 3.0 0.00 0.00 0.00 62 1019.0
20260902152259 91 167 0.0 3.0 0.00 0.00 0.00 63 1019.0
20260902152159 90 255 0.0 3.0 0.00 0.00 0.00 63 1019.0
20260902152059 90 145 0.0 3.0 0.00 0.00 0.00 62 1019.1
20260902152000 90 330 0.0 3.0 0.00 0.00 0.00 62 1019.1
20260902151902 90 308 0.0 4.0 0.00 0.00 0.00 62 1019.0
20260902151804 90 308 0.0 4.0 0.00 0.00 0.00 63 1019.0
20260902151701 90 5 0.0 4.0 0.00 0.00 0.00 63 1019.1
20260902151500 90 340 0.0 4.0 0.00 0.00 0.00 64 1019.1
20260902151259 90 168 0.0 4.0 0.00 0.00 0.00 63 1019.1
20260902151159 90 22 0.0 4.0 0.00 0.00 0.00 63 1019.1
20260902151100 89 19 0.0 4.0 0.00 0.00 0.00 63 1019.1
20260902150959 89 170 4.0 4.0 0.00 0.00 0.00 63 1019.1
20260902150801 89 228 0.0 4.0 0.00 0.00 0.00 65 1019.1
20260902150659 89 322 0.0 4.0 0.00 0.00 0.00 65 1019.1
20260902150559 89 321 0.0 4.0 0.00 0.00 0.00 65 1019.2
20260902150459 89 347 1.0 4.0 0.00 0.00 0.00 65 1019.2
20260902150400 89 182 0.0 4.0 0.00 0.00 0.00 64 1019.2
20260902150259 89 191 2.0 4.0 0.00 0.00 0.00 64 1019.2
20260902150159 89 202 1.0 4.0 0.00 0.00 0.00 65 1019.0
20260902150100 89 284 1.0 4.0 0.00 0.00 0.00 66 1019.0
20260902145958 89 290 3.0 5.0 0.00 0.00 0.00 65 1019.1
20260902145857 88 159 4.0 5.0 0.00 0.00 0.00 65 1019.1
20260902145759 88 157 2.0 5.0 0.00 0.00 0.00 65 1019.1
20260902145658 88 242 0.0 5.0 0.00 0.00 0.00 65 1019.1
20260902145458 88 182 0.0 5.0 0.00 0.00 0.00 65 1019.0
20260902145258 88 154 2.0 5.0 0.00 0.00 0.00 65 1019.0
20260902145159 88 192 1.0 5.0 0.00 0.00 0.00 65 1019.0
20260902145059 88 94 1.0 4.0 0.00 0.00 0.00 66 1019.0
20260902144958 88 15 2.0 5.0 0.00 0.00 0.00 66 1018.9
20260902144857 88 251 1.0 5.0 0.00 0.00 0.00 67 1018.9
20260902144757 88 153 0.0 6.0 0.00 0.00 0.00 67 1018.9
20260902144658 88 307 1.0 6.0 0.00 0.00 0.00 66 1018.9
20260902144458 88 190 1.0 6.0 0.00 0.00 0.00 66 1019.0
20260902144358 88 163 1.0 6.0 0.00 0.00 0.00 66 1019.0
20260902144258 88 206 3.0 6.0 0.00 0.00 0.00 66 1018.9
20260902144158 88 175 1.0 6.0 0.00 0.00 0.00 65 1019.0
20260902144058 88 209 3.0 6.0 0.00 0.00 0.00 65 1018.9
20260902144000 88 144 0.0 6.0 0.00 0.00 0.00 65 1019.0
20260902143858 88 194 2.0 6.0 0.00 0.00 0.00 66 1019.0
20260902143658 88 227 1.0 6.0 0.00 0.00 0.00 67 1019.0
20260902143457 88 101 0.0 6.0 0.00 0.00 0.00 67 1019.0
20260902143357 88 245 0.0 6.0 0.00 0.00 0.00 66 1019.0
20260902143258 88 154 0.0 6.0 0.00 0.00 0.00 66 1018.9
20260902143200 88 182 1.0 1.0 0.00 0.00 0.00 67 1019.0
20260902143000 87 181 0.0 2.0 0.00 0.00 0.00 68 1018.9
20260902142858 87 42 0.0 2.0 0.00 0.00 0.00 67 1018.9
20260902142758 87 47 0.0 4.0 0.00 0.00 0.00 68 1018.9
20260902142700 87 15 0.0 4.0 0.00 0.00 0.00 68 1018.9
20260902142558 87 15 0.0 4.0 0.00 0.00 0.00 68 1018.9
20260902142458 87 113 0.0 4.0 0.00 0.00 0.00 67 1019.0
20260902142359 86 254 0.0 4.0 0.00 0.00 0.00 68 1018.9
20260902142259 86 334 0.0 4.0 0.00 0.00 0.00 68 1019.0
20260902142159 86 196 1.0 6.0 0.00 0.00 0.00 68 1019.0
20260902142058 86 171 2.0 6.0 0.00 0.00 0.00 68 1019.0
20260902141958 86 170 0.0 6.0 0.00 0.00 0.00 68 1019.1
20260902141858 86 180 2.0 9.0 0.00 0.00 0.00 68 1019.0
20260902141757 86 174 2.0 9.0 0.00 0.00 0.00 68 1019.0
20260902141658 86 206 0.0 9.0 0.00 0.00 0.00 68 1019.0